Observation data for Lesley on 02/22/2019      Previous  Date  Next       Current Mesonet Observations  Soil Data  Daily Summary Page  Observations in Plain Language
KLE1 220600Z 08009KT 02/M01 A2994 RMK A01 T00241010  RH  078%=      5-min Rain = 0
KLE1 220601Z 07009KT 02/M01 A2994 RMK A01 T00241010  RH  078%=      5-min Rain = 0
KLE1 220602Z 08010KT 02/M01 A2994 RMK A01 T00231011  RH  078%=      5-min Rain = 0
KLE1 220603Z 07009KT 02/M01 A2994 RMK A01 T00231010  RH  079%=      5-min Rain = 0
KLE1 220604Z 08009KT 02/M01 A2994 RMK A01 T00231010  RH  079%=      5-min Rain = 0
KLE1 220605Z 08010KT 02/M01 A2994 RMK A01 T00221010  RH  079%=      5-min Rain = 0
KLE1 220606Z 08009KT 02/M01 A2994 RMK A01 T00221009  RH  080%=      5-min Rain = 0
KLE1 220607Z 07009KT 02/M01 A2994 RMK A01 T00221010  RH  080%=      5-min Rain = 0
KLE1 220608Z 08009KT 02/M01 A2994 RMK A01 T00221009  RH  080%=      5-min Rain = 0
KLE1 220609Z 08010KT 02/M01 A2994 RMK A01 T00221009  RH  080%=      5-min Rain = 0
KLE1 220610Z 08009KT 02/M01 A2995 RMK A01 T00221008  RH  080%=      5-min Rain = 0
KLE1 220611Z 08009KT 02/M01 A2995 RMK A01 T00221009  RH  080%=      5-min Rain = 0
KLE1 220612Z 08009KT 02/M01 A2995 RMK A01 T00211009  RH  080%=      5-min Rain = 0
KLE1 220613Z 08009KT 02/M01 A2995 RMK A01 T00211009  RH  081%=      5-min Rain = 0
KLE1 220614Z 08009KT 02/M01 A2995 RMK A01 T00211008  RH  081%=      5-min Rain = 0
KLE1 220615Z 08009KT 02/M01 A2995 RMK A01 T00211009  RH  081%=      5-min Rain = 0
KLE1 220616Z 08009KT 02/M01 A2995 RMK A01 T00211009  RH  081%=      5-min Rain = 0
KLE1 220617Z 07009KT 02/M01 A2995 RMK A01 T00201008  RH  081%=      5-min Rain = 0
KLE1 220618Z 07009KT 02/M01 A2995 RMK A01 T00201008  RH  082%=      5-min Rain = 0
KLE1 220619Z 07009KT 02/M01 A2995 RMK A01 T00201008  RH  082%=      5-min Rain = 0
KLE1 220620Z 07008KT 02/M01 A2995 RMK A01 T00211007  RH  082%=      5-min Rain = 0
KLE1 220621Z 08009KT 02/M01 A2995 RMK A01 T00201008  RH  082%=      5-min Rain = 0
KLE1 220622Z 08009KT 02/M01 A2995 RMK A01 T00201008  RH  082%=      5-min Rain = 0
KLE1 220623Z 08009KT 02/M01 A2995 RMK A01 T00201007  RH  082%=      5-min Rain = 0
KLE1 220624Z 08009KT 02/M01 A2995 RMK A01 T00201007  RH  082%=      5-min Rain = 0
KLE1 220625Z 08009KT 02/M01 A2995 RMK A01 T00201007  RH  082%=      5-min Rain = 0
KLE1 220626Z 08009KT 02/M01 A2995 RMK A01 T00191007  RH  083%=      5-min Rain = 0
KLE1 220627Z 08009KT 02/M01 A2995 RMK A01 T00191007  RH  083%=      5-min Rain = 0
KLE1 220628Z 08008KT 02/M01 A2995 RMK A01 T00191007  RH  083%=      5-min Rain = 0
KLE1 220629Z 08009KT 02/M01 A2995 RMK A01 T00181008  RH  083%=      5-min Rain = 0
KLE1 220630Z 08010KT 02/M01 A2995 RMK A01 T00181007  RH  083%=      5-min Rain = 0
KLE1 220631Z 08009KT 02/M01 A2995 RMK A01 T00181007  RH  084%=      5-min Rain = 0
KLE1 220632Z 08010KT 02/M01 A2995 RMK A01 T00181007  RH  084%=      5-min Rain = 0
KLE1 220633Z 08010KT 02/M01 A2995 RMK A01 T00181006  RH  084%=      5-min Rain = 0
KLE1 220634Z 08010KT 02/M01 A2995 RMK A01 T00181006  RH  084%=      5-min Rain = 0
KLE1 220635Z 08010KT 02/M01 A2995 RMK A01 T00181006  RH  084%=      5-min Rain = 0
KLE1 220636Z 08010KT 02/M01 A2995 RMK A01 T00191006  RH  084%=      5-min Rain = 0
KLE1 220637Z 08010KT 02/M01 A2995 RMK A01 T00191006  RH  084%=      5-min Rain = 0
KLE1 220638Z 08010KT 02/M01 A2995 RMK A01 T00191006  RH  084%=      5-min Rain = 0
KLE1 220639Z 08010KT 02/M01 A2995 RMK A01 T00191005  RH  084%=      5-min Rain = 0
KLE1 220640Z 08010KT 02/M01 A2995 RMK A01 T00191005  RH  084%=      5-min Rain = 0
KLE1 220641Z 08010KT 02/M01 A2995 RMK A01 T00181005  RH  084%=      5-min Rain = 0
KLE1 220642Z 08010KT 02/M01 A2995 RMK A01 T00181005  RH  085%=      5-min Rain = 0
KLE1 220643Z 08010KT 02/M01 A2995 RMK A01 T00181005  RH  085%=      5-min Rain = 0
KLE1 220644Z 08010KT 02/M01 A2995 RMK A01 T00181005  RH  085%=      5-min Rain = 0
KLE1 220645Z 08009KT 02/M00 A2995 RMK A01 T00181004  RH  085%=      5-min Rain = 0
KLE1 220646Z 08010KT 02/M00 A2995 RMK A01 T00181004  RH  086%=      5-min Rain = 0
KLE1 220647Z 08010KT 02/M00 A2995 RMK A01 T00181003  RH  086%=      5-min Rain = 0
KLE1 220648Z 08010KT 02/M00 A2995 RMK A01 T00181003  RH  086%=      5-min Rain = 0
KLE1 220649Z 08010KT 02/M00 A2995 RMK A01 T00181003  RH  086%=      5-min Rain = 0
KLE1 220650Z 08009KT 02/M00 A2995 RMK A01 T00181003  RH  086%=      5-min Rain = 0
KLE1 220651Z 08010KT 02/M00 A2995 RMK A01 T00181002  RH  086%=      5-min Rain = 0
KLE1 220652Z 08010KT 02/M00 A2995 RMK A01 T00181002  RH  087%=      5-min Rain = 0
KLE1 220653Z 08010KT 02/M00 A2995 RMK A01 T00181002  RH  087%=      5-min Rain = 0
KLE1 220654Z 08010KT 02/M00 A2995 RMK A01 T00181001  RH  087%=      5-min Rain = 0
KLE1 220655Z 08010KT 02/M00 A2995 RMK A01 T00181002  RH  087%=      5-min Rain = 0
KLE1 220656Z 08010KT 02/M00 A2995 RMK A01 T00181001  RH  087%=      5-min Rain = 0
KLE1 220657Z 08009KT 02/M00 A2995 RMK A01 T00181001  RH  087%=      5-min Rain = 0
KLE1 220658Z 08010KT 02/M00 A2995 RMK A01 T00171001  RH  088%=      5-min Rain = 0
KLE1 220659Z 09009KT 02/00 A2996 RMK A01 T001700-0  RH  088%=      5-min Rain = 0
KLE1 220700Z 09009KT 02/00 A2996 RMK A01 T001700-0  RH  088%=      5-min Rain = 0
KLE1 220701Z 09009KT 02/M00 A2996 RMK A01 T00171001  RH  088%=      5-min Rain = 0
KLE1 220702Z 09009KT 02/M00 A2996 RMK A01 T00171001  RH  088%=      5-min Rain = 0
KLE1 220703Z 09009KT 02/M00 A2996 RMK A01 T00161001  RH  088%=      5-min Rain = 0
KLE1 220704Z 09009KT 02/M00 A2996 RMK A01 T00161001  RH  088%=      5-min Rain = 0
KLE1 220705Z 09009KT 02/M00 A2996 RMK A01 T00161001  RH  089%=      5-min Rain = 0
KLE1 220706Z 08009KT 02/M00 A2996 RMK A01 T00151001  RH  089%=      5-min Rain = 0
KLE1 220707Z 09010KT 02/M00 A2996 RMK A01 T00151001  RH  089%=      5-min Rain = 0
KLE1 220708Z 08009KT 02/00 A2996 RMK A01 T001600-0  RH  089%=      5-min Rain = 0
KLE1 220709Z 08009KT 02/M00 A2996 RMK A01 T00151001  RH  089%=      5-min Rain = 0
KLE1 220710Z 08010KT 02/M00 A2996 RMK A01 T00151001  RH  089%=      5-min Rain = 0
KLE1 220711Z 09010KT 02/M00 A2996 RMK A01 T00151001  RH  089%=      5-min Rain = 0
KLE1 220712Z 08009KT 01/M00 A2996 RMK A01 T00141001  RH  089%=      5-min Rain = 0
KLE1 220713Z 08010KT 01/M00 A2996 RMK A01 T00141001  RH  090%=      5-min Rain = 0
KLE1 220714Z 08010KT 01/M00 A2995 RMK A01 T00141001  RH  090%=      5-min Rain = 0
KLE1 220715Z 08010KT 01/M00 A2995 RMK A01 T00141001  RH  090%=      5-min Rain = 0
KLE1 220716Z 09010KT 01/M00 A2995 RMK A01 T00141001  RH  090%=      5-min Rain = 0
KLE1 220717Z 09010KT 01/M00 A2995 RMK A01 T00131002  RH  090%=      5-min Rain = 0
KLE1 220718Z 09010KT 01/M00 A2995 RMK A01 T00131002  RH  090%=      5-min Rain = 0
KLE1 220719Z 08011KT 01/M00 A2995 RMK A01 T00131002  RH  090%=      5-min Rain = 0
KLE1 220720Z 08010KT 01/M00 A2995 RMK A01 T00131002  RH  090%=      5-min Rain = 0
KLE1 220721Z 09011KT 01/M00 A2995 RMK A01 T00121002  RH  091%=      5-min Rain = 0
KLE1 220722Z 08011KT 01/M00 A2995 RMK A01 T00121001  RH  091%=      5-min Rain = 0
KLE1 220723Z 08011KT 01/M00 A2995 RMK A01 T00121001  RH  091%=      5-min Rain = 0
KLE1 220724Z 08011KT 01/00 A2995 RMK A01 T001200-0  RH  091%=      5-min Rain = 0
KLE1 220725Z 08011KT 01/00 A2995 RMK A01 T00130000  RH  091%=      5-min Rain = 0
KLE1 220726Z 08011KT 01/00 A2995 RMK A01 T00130000  RH  091%=      5-min Rain = 0
KLE1 220727Z 08011KT 01/00 A2995 RMK A01 T00130000  RH  091%=      5-min Rain = 0
KLE1 220728Z 08011KT 01/00 A2995 RMK A01 T00140001  RH  091%=      5-min Rain = 0
KLE1 220729Z 08010KT 01/00 A2995 RMK A01 T00140001  RH  091%=      5-min Rain = 0
KLE1 220730Z 08010KT 01/00 A2995 RMK A01 T00140001  RH  091%=      5-min Rain = 0
KLE1 220731Z 08010KT 01/00 A2995 RMK A01 T00140000  RH  091%=      5-min Rain = 0
KLE1 220732Z 08010KT 01/00 A2995 RMK A01 T001400-0  RH  090%=      5-min Rain = 0
KLE1 220733Z 08010KT 01/00 A2995 RMK A01 T00140000  RH  091%=      5-min Rain = 0
KLE1 220734Z 08009KT 01/00 A2995 RMK A01 T00140001  RH  091%=      5-min Rain = 0
KLE1 220735Z 08011KT 02/00 A2995 RMK A01 T00150001  RH  091%=      5-min Rain = 0
KLE1 220736Z 08010KT 02/00 A2995 RMK A01 T00160002  RH  091%=      5-min Rain = 0
KLE1 220737Z 08011KT 02/00 A2995 RMK A01 T00160003  RH  091%=      5-min Rain = 0
KLE1 220738Z 08010KT 02/00 A2995 RMK A01 T00170003  RH  091%=      5-min Rain = 0
KLE1 220739Z 08010KT 02/00 A2995 RMK A01 T00170003  RH  091%=      5-min Rain = 0
KLE1 220740Z 08010KT 02/00 A2995 RMK A01 T00170003  RH  090%=      5-min Rain = 0
KLE1 220741Z 08011KT 02/00 A2995 RMK A01 T00170003  RH  090%=      5-min Rain = 0
KLE1 220742Z 08012KT 02/00 A2995 RMK A01 T00180004  RH  091%=      5-min Rain = 0
KLE1 220743Z 08012KT 02/01 A2995 RMK A01 T00190006  RH  091%=      5-min Rain = 0
KLE1 220744Z 08011KT 02/01 A2995 RMK A01 T00190006  RH  091%=      5-min Rain = 0
KLE1 220745Z 08011KT 02/01 A2995 RMK A01 T00190006  RH  091%=      5-min Rain = 0
KLE1 220746Z 08011KT 02/01 A2995 RMK A01 T00200005  RH  090%=      5-min Rain = 0
KLE1 220747Z 08011KT 02/01 A2995 RMK A01 T00190005  RH  090%=      5-min Rain = 0
KLE1 220748Z 08011KT 02/01 A2995 RMK A01 T00190005  RH  090%=      5-min Rain = 0
KLE1 220749Z 08011KT 02/01 A2995 RMK A01 T00190005  RH  090%=      5-min Rain = 0
KLE1 220750Z 08011KT 02/01 A2995 RMK A01 T00200006  RH  091%=      5-min Rain = 0
KLE1 220751Z 08012KT 02/01 A2996 RMK A01 T00200006  RH  090%=      5-min Rain = 0
KLE1 220752Z 09012KT 02/01 A2996 RMK A01 T00210008  RH  091%=      5-min Rain = 0
KLE1 220753Z 08011KT 02/01 A2996 RMK A01 T00220009  RH  091%=      5-min Rain = 0
KLE1 220754Z 09011KT 02/01 A2996 RMK A01 T00220009  RH  091%=      5-min Rain = 0
KLE1 220755Z 08011KT 02/01 A2996 RMK A01 T00230009  RH  091%=      5-min Rain = 0
KLE1 220756Z 09011KT 02/01 A2996 RMK A01 T00230009  RH  091%=      5-min Rain = 0
KLE1 220757Z 09010KT 02/01 A2996 RMK A01 T00230010  RH  091%=      5-min Rain = 0
KLE1 220758Z 09011KT 02/01 A2996 RMK A01 T00230010  RH  091%=      5-min Rain = 0
KLE1 220759Z 09011KT 02/01 A2996 RMK A01 T00240011  RH  091%=      5-min Rain = 0
KLE1 220800Z 08011KT 02/01 A2996 RMK A01 T00240011  RH  091%=      5-min Rain = 0
KLE1 220801Z 09010KT 03/01 A2996 RMK A01 T00250011  RH  091%=      5-min Rain = 0
KLE1 220802Z 09010KT 03/01 A2996 RMK A01 T00250011  RH  091%=      5-min Rain = 0
KLE1 220803Z 08012KT 03/01 A2996 RMK A01 T00250012  RH  091%=      5-min Rain = 0
KLE1 220804Z 09012KT 03/01 A2996 RMK A01 T00250012  RH  091%=      5-min Rain = 0
KLE1 220805Z 09011KT 03/01 A2996 RMK A01 T00260013  RH  091%=      5-min Rain = 0
KLE1 220806Z 09010KT 03/01 A2996 RMK A01 T00250012  RH  091%=      5-min Rain = 0
KLE1 220807Z 09010KT 03/01 A2996 RMK A01 T00250012  RH  091%=      5-min Rain = 0
KLE1 220808Z 09011KT 03/01 A2996 RMK A01 T00250012  RH  091%=      5-min Rain = 0
KLE1 220809Z 09010KT 03/01 A2996 RMK A01 T00250012  RH  091%=      5-min Rain = 0
KLE1 220810Z 10011KT 03/01 A2996 RMK A01 T00260012  RH  091%=      5-min Rain = 0
KLE1 220811Z 09010KT 03/01 A2996 RMK A01 T00250012  RH  091%=      5-min Rain = 0
KLE1 220812Z 09011KT 03/01 A2996 RMK A01 T00250012  RH  091%=      5-min Rain = 0
KLE1 220813Z 09013KT 03/01 A2996 RMK A01 T00260013  RH  091%=      5-min Rain = 0
KLE1 220814Z 09013KT 03/01 A2996 RMK A01 T00260014  RH  092%=      5-min Rain = 0
KLE1 220815Z 09011KT 03/01 A2996 RMK A01 T00260014  RH  092%=      5-min Rain = 0
KLE1 220816Z 09010KT 03/01 A2996 RMK A01 T00260014  RH  092%=      5-min Rain = 0
KLE1 220817Z 09012KT 03/01 A2996 RMK A01 T00260014  RH  092%=      5-min Rain = 0
KLE1 220818Z 09012KT 03/01 A2996 RMK A01 T00260014  RH  092%=      5-min Rain = 0
KLE1 220819Z 09011KT 03/01 A2996 RMK A01 T00260014  RH  092%=      5-min Rain = 0
KLE1 220820Z 09011KT 03/01 A2996 RMK A01 T00260014  RH  092%=      5-min Rain = 0
KLE1 220821Z 09013KT 03/01 A2996 RMK A01 T00260014  RH  092%=      5-min Rain = 0
KLE1 220822Z 09012KT 03/02 A2996 RMK A01 T00260015  RH  092%=      5-min Rain = 0
KLE1 220823Z 10011KT 03/02 A2996 RMK A01 T00260016  RH  093%=      5-min Rain = 0
KLE1 220824Z 09011KT 03/02 A2996 RMK A01 T00260015  RH  093%=      5-min Rain = 0
KLE1 220825Z 09011KT 03/02 A2996 RMK A01 T00260015  RH  093%=      5-min Rain = 0
KLE1 220826Z 09012KT 03/02 A2996 RMK A01 T00260016  RH  093%=      5-min Rain = 0
KLE1 220827Z 09011KT 03/02 A2996 RMK A01 T00270016  RH  093%=      5-min Rain = 0
KLE1 220828Z 09011KT 03/02 A2996 RMK A01 T00270017  RH  093%=      5-min Rain = 0
KLE1 220829Z 10012KT 03/02 A2996 RMK A01 T00270017  RH  093%=      5-min Rain = 0
KLE1 220830Z 09013KT 03/02 A2996 RMK A01 T00270017  RH  093%=      5-min Rain = 0
KLE1 220831Z 09013KT 03/02 A2996 RMK A01 T00270017  RH  093%=      5-min Rain = 0
KLE1 220832Z 09014KT 03/02 A2996 RMK A01 T00270017  RH  093%=      5-min Rain = 0
KLE1 220833Z 09012KT 03/02 A2996 RMK A01 T00270017  RH  093%=      5-min Rain = 0
KLE1 220834Z 09014KT 03/02 A2996 RMK A01 T00270017  RH  093%=      5-min Rain = 0
KLE1 220835Z 10012KT 03/02 A2996 RMK A01 T00270018  RH  094%=      5-min Rain = 0
KLE1 220836Z 10012KT 03/02 A2996 RMK A01 T00270018  RH  094%=      5-min Rain = 0
KLE1 220837Z 09011KT 03/02 A2996 RMK A01 T00270018  RH  094%=      5-min Rain = 0
KLE1 220838Z 10011KT 03/02 A2996 RMK A01 T00270018  RH  094%=      5-min Rain = 0
KLE1 220839Z 10012KT 03/02 A2996 RMK A01 T00280018  RH  094%=      5-min Rain = 0
KLE1 220840Z 10011KT 03/02 A2996 RMK A01 T00280019  RH  094%=      5-min Rain = 0
KLE1 220841Z 09013KT 03/02 A2996 RMK A01 T00280019  RH  094%=      5-min Rain = 0
KLE1 220842Z 09012KT 03/02 A2996 RMK A01 T00280019  RH  094%=      5-min Rain = 0
KLE1 220843Z 10012KT 03/02 A2996 RMK A01 T00280019  RH  094%=      5-min Rain = 0
KLE1 220844Z 09013KT 03/02 A2996 RMK A01 T00280019  RH  094%=      5-min Rain = 0
KLE1 220845Z 10012KT 03/02 A2996 RMK A01 T00280019  RH  094%=      5-min Rain = 0
KLE1 220846Z 09013KT 03/02 A2996 RMK A01 T00280020  RH  094%=      5-min Rain = 0
KLE1 220847Z 09012KT 03/02 A2996 RMK A01 T00280020  RH  094%=      5-min Rain = 0
KLE1 220848Z 10013KT 03/02 A2996 RMK A01 T00280020  RH  094%=      5-min Rain = 0
KLE1 220849Z 10013KT 03/02 A2996 RMK A01 T00280020  RH  095%=      5-min Rain = 0
KLE1 220850Z 10012KT 03/02 A2996 RMK A01 T00280021  RH  095%=      5-min Rain = 0
KLE1 220851Z 10012KT 03/02 A2996 RMK A01 T00290021  RH  095%=      5-min Rain = 0
KLE1 220852Z 10012KT 03/02 A2996 RMK A01 T00290021  RH  095%=      5-min Rain = 0
KLE1 220853Z 10012KT 03/02 A2997 RMK A01 T00290021  RH  095%=      5-min Rain = 0
KLE1 220854Z 10012KT 03/02 A2997 RMK A01 T00290021  RH  095%=      5-min Rain = 0
KLE1 220855Z 10010KT 03/02 A2997 RMK A01 T00290021  RH  095%=      5-min Rain = 0
KLE1 220856Z 09010KT 03/02 A2997 RMK A01 T00290021  RH  095%=      5-min Rain = 0
KLE1 220857Z 10010KT 03/02 A2997 RMK A01 T00290021  RH  095%=      5-min Rain = 0
KLE1 220858Z 09010KT 03/02 A2997 RMK A01 T00290021  RH  095%=      5-min Rain = 0
KLE1 220859Z 10009KT 03/02 A2997 RMK A01 T00290021  RH  095%=      5-min Rain = 0
KLE1 220900Z 10010KT 03/02 A2997 RMK A01 T00290021  RH  095%=      5-min Rain = 0
KLE1 220901Z 10010KT 03/02 A2997 RMK A01 T00290021  RH  095%=      5-min Rain = 0
KLE1 220902Z 09010KT 03/02 A2996 RMK A01 T00290021  RH  095%=      5-min Rain = 0
KLE1 220903Z 09010KT 03/02 A2996 RMK A01 T00290021  RH  095%=      5-min Rain = 0
KLE1 220904Z 10010KT 03/02 A2996 RMK A01 T00290021  RH  095%=      5-min Rain = 0
KLE1 220905Z 10009KT 03/02 A2996 RMK A01 T00290021  RH  095%=      5-min Rain = 0
KLE1 220906Z 10010KT 03/02 A2996 RMK A01 T00290022  RH  095%=      5-min Rain = 0
KLE1 220907Z 09010KT 03/02 A2996 RMK A01 T00290022  RH  095%=      5-min Rain = 0
KLE1 220908Z 10010KT 03/02 A2996 RMK A01 T00290022  RH  095%=      5-min Rain = 0
KLE1 220909Z 10010KT 03/02 A2996 RMK A01 T00290022  RH  095%=      5-min Rain = 0
KLE1 220910Z 10009KT 03/02 A2997 RMK A01 T00290022  RH  095%=      5-min Rain = 0
KLE1 220911Z 09011KT 03/02 A2997 RMK A01 T00290022  RH  095%=      5-min Rain = 0
KLE1 220912Z 10010KT 03/02 A2997 RMK A01 T00290022  RH  095%=      5-min Rain = 0
KLE1 220913Z 09009KT 03/02 A2997 RMK A01 T00290022  RH  096%=      5-min Rain = 0
KLE1 220914Z 10010KT 03/02 A2997 RMK A01 T00290023  RH  096%=      5-min Rain = 0
KLE1 220915Z 10009KT 03/02 A2997 RMK A01 T00290023  RH  096%=      5-min Rain = 0
KLE1 220916Z 09009KT 03/02 A2997 RMK A01 T00280022  RH  096%=      5-min Rain = 0
KLE1 220917Z 10010KT 03/02 A2997 RMK A01 T00290023  RH  096%=      5-min Rain = 0
KLE1 220918Z 10009KT 03/02 A2997 RMK A01 T00280023  RH  096%=      5-min Rain = 0
KLE1 220919Z 10009KT 03/02 A2997 RMK A01 T00280023  RH  096%=      5-min Rain = 0
KLE1 220920Z 10009KT 03/02 A2997 RMK A01 T00280023  RH  096%=      5-min Rain = 0
KLE1 220921Z 10009KT 03/02 A2997 RMK A01 T00280023  RH  096%=      5-min Rain = 0
KLE1 220922Z 09009KT 03/02 A2997 RMK A01 T00280023  RH  096%=      5-min Rain = 0
KLE1 220923Z 09009KT 03/02 A2997 RMK A01 T00280023  RH  096%=      5-min Rain = 0
KLE1 220924Z 09009KT 03/02 A2997 RMK A01 T00280023  RH  097%=      5-min Rain = 0
KLE1 220925Z 09008KT 03/02 A2997 RMK A01 T00280023  RH  097%=      5-min Rain = 0
KLE1 220926Z 09010KT 03/02 A2997 RMK A01 T00280023  RH  097%=      5-min Rain = 0
KLE1 220927Z 09010KT 03/02 A2997 RMK A01 T00280023  RH  097%=      5-min Rain = 0
KLE1 220928Z 09009KT 03/02 A2997 RMK A01 T00280023  RH  097%=      5-min Rain = 0
KLE1 220929Z 09011KT 03/02 A2997 RMK A01 T00280024  RH  097%=      5-min Rain = 0
KLE1 220930Z 09010KT 03/02 A2997 RMK A01 T00280024  RH  097%=      5-min Rain = 0
KLE1 220931Z 09009KT 03/02 A2997 RMK A01 T00280024  RH  097%=      5-min Rain = 0
KLE1 220932Z 09010KT 03/02 A2997 RMK A01 T00280024  RH  097%=      5-min Rain = 0
KLE1 220933Z 09010KT 03/02 A2997 RMK A01 T00280024  RH  097%=      5-min Rain = 0
KLE1 220934Z 09009KT 03/02 A2997 RMK A01 T00280024  RH  097%=      5-min Rain = 0
KLE1 220935Z 09009KT 03/02 A2997 RMK A01 T00280024  RH  097%=      5-min Rain = 0
KLE1 220936Z 09008KT 03/02 A2996 RMK A01 T00280024  RH  097%=      5-min Rain = 0
KLE1 220937Z 10010KT 03/02 A2996 RMK A01 T00280024  RH  097%=      5-min Rain = 0
KLE1 220938Z 10009KT 03/02 A2997 RMK A01 T00280024  RH  097%=      5-min Rain = 0
KLE1 220939Z 10008KT 03/02 A2997 RMK A01 T00280024  RH  097%=      5-min Rain = 0
KLE1 220940Z 09009KT 03/02 A2997 RMK A01 T00280024  RH  097%=      5-min Rain = 0
KLE1 220941Z 09009KT 03/02 A2996 RMK A01 T00280024  RH  097%=      5-min Rain = 0
KLE1 220942Z 10007KT 03/02 A2997 RMK A01 T00280024  RH  097%=      5-min Rain = 0
KLE1 220943Z 10009KT 03/02 A2997 RMK A01 T00280024  RH  097%=      5-min Rain = 0
KLE1 220944Z 10009KT 03/02 A2996 RMK A01 T00280024  RH  097%=      5-min Rain = 0
KLE1 220945Z 10009KT 03/02 A2997 RMK A01 T00280024  RH  097%=      5-min Rain = 0
KLE1 220946Z 09007KT 03/02 A2997 RMK A01 T00280024  RH  097%=      5-min Rain = 0
KLE1 220947Z 09006KT 03/02 A2997 RMK A01 T00280024  RH  097%=      5-min Rain = 0
KLE1 220948Z 09009KT 03/02 A2996 RMK A01 T00280024  RH  097%=      5-min Rain = 0
KLE1 220949Z 08009KT 03/02 A2996 RMK A01 T00280024  RH  097%=      5-min Rain = 0
KLE1 220950Z 08009KT 03/02 A2996 RMK A01 T00280024  RH  097%=      5-min Rain = 0
KLE1 220951Z 08007KT 03/02 A2996 RMK A01 T00280024  RH  097%=      5-min Rain = 0
KLE1 220952Z 09007KT 03/02 A2996 RMK A01 T00280024  RH  097%=      5-min Rain = 0
KLE1 220953Z 09008KT 03/03 A2996 RMK A01 T00290025  RH  097%=      5-min Rain = 0
KLE1 220954Z 09009KT 03/03 A2996 RMK A01 T00290025  RH  097%=      5-min Rain = 0
KLE1 220955Z 09007KT 03/02 A2996 RMK A01 T00280024  RH  097%=      5-min Rain = 0
KLE1 220956Z 09008KT 03/03 A2996 RMK A01 T00290025  RH  097%=      5-min Rain = 0
KLE1 220957Z 08007KT 03/03 A2996 RMK A01 T00290025  RH  097%=      5-min Rain = 0
KLE1 220958Z 09008KT 03/03 A2996 RMK A01 T00290025  RH  097%=      5-min Rain = 0
KLE1 220959Z 09007KT 03/02 A2996 RMK A01 T00290024  RH  097%=      5-min Rain = 0
KLE1 221000Z 09007KT 03/02 A2996 RMK A01 T00290024  RH  097%=      5-min Rain = 0
KLE1 221001Z 09007KT 03/02 A2996 RMK A01 T00290024  RH  097%=      5-min Rain = 0
KLE1 221002Z 09007KT 03/03 A2996 RMK A01 T00290025  RH  097%=      5-min Rain = 0
KLE1 221003Z 09006KT 03/02 A2996 RMK A01 T00290024  RH  097%=      5-min Rain = 0
KLE1 221004Z 09006KT 03/02 A2996 RMK A01 T00290024  RH  097%=      5-min Rain = 0
KLE1 221005Z 08007KT 03/02 A2996 RMK A01 T00290024  RH  097%=      5-min Rain = 0
KLE1 221006Z 08007KT 03/02 A2996 RMK A01 T00290024  RH  097%=      5-min Rain = 0
KLE1 221007Z 08008KT 03/02 A2996 RMK A01 T00290024  RH  097%=      5-min Rain = 0
KLE1 221008Z 08007KT 03/02 A2996 RMK A01 T00290024  RH  097%=      5-min Rain = 0
KLE1 221009Z 08007KT 03/02 A2996 RMK A01 T00290024  RH  097%=      5-min Rain = 0
KLE1 221010Z 08007KT 03/02 A2996 RMK A01 T00290024  RH  097%=      5-min Rain = 0
KLE1 221011Z 08007KT 03/02 A2996 RMK A01 T00290024  RH  097%=      5-min Rain = 0
KLE1 221012Z 08007KT 03/02 A2996 RMK A01 T00290024  RH  097%=      5-min Rain = 0
KLE1 221013Z 08006KT 03/02 A2996 RMK A01 T00290024  RH  097%=      5-min Rain = 0
KLE1 221014Z 08008KT 03/02 A2996 RMK A01 T00290024  RH  097%=      5-min Rain = 0
KLE1 221015Z 08009KT 03/02 A2996 RMK A01 T00290024  RH  096%=      5-min Rain = 0
KLE1 221016Z 08009KT 03/02 A2996 RMK A01 T00290024  RH  096%=      5-min Rain = 0
KLE1 221017Z 08010KT 03/02 A2996 RMK A01 T00290024  RH  096%=      5-min Rain = 0
KLE1 221018Z 09008KT 03/02 A2996 RMK A01 T00290024  RH  096%=      5-min Rain = 0
KLE1 221019Z 09007KT 03/02 A2996 RMK A01 T00290024  RH  096%=      5-min Rain = 0
KLE1 221020Z 09008KT 03/02 A2996 RMK A01 T00290024  RH  096%=      5-min Rain = 0
KLE1 221021Z 09008KT 03/02 A2996 RMK A01 T00290024  RH  096%=      5-min Rain = 0
KLE1 221022Z 09009KT 03/02 A2996 RMK A01 T00290024  RH  096%=      5-min Rain = 0
KLE1 221023Z 09008KT 03/02 A2996 RMK A01 T00290024  RH  096%=      5-min Rain = 0
KLE1 221024Z 08009KT 03/03 A2996 RMK A01 T00300025  RH  096%=      5-min Rain = 0
KLE1 221025Z 09008KT 03/02 A2996 RMK A01 T00300024  RH  096%=      5-min Rain = 0
KLE1 221026Z 08009KT 03/03 A2996 RMK A01 T00300025  RH  096%=      5-min Rain = 0
KLE1 221027Z 09009KT 03/03 A2996 RMK A01 T00300025  RH  097%=      5-min Rain = 0
KLE1 221028Z 09009KT 03/03 A2996 RMK A01 T00300025  RH  097%=      5-min Rain = 0
KLE1 221029Z 09009KT 03/03 A2996 RMK A01 T00300025  RH  097%=      5-min Rain = 0
KLE1 221030Z 09009KT 03/03 A2996 RMK A01 T00290025  RH  097%=      5-min Rain = 0
KLE1 221031Z 09008KT 03/02 A2996 RMK A01 T00290024  RH  097%=      5-min Rain = 0
KLE1 221032Z 09007KT 03/02 A2996 RMK A01 T00290024  RH  097%=      5-min Rain = 0
KLE1 221033Z 09008KT 03/02 A2996 RMK A01 T00290024  RH  097%=      5-min Rain = 0
KLE1 221034Z 09008KT 03/03 A2996 RMK A01 T00290025  RH  097%=      5-min Rain = 0
KLE1 221035Z 09007KT 03/03 A2996 RMK A01 T00290025  RH  097%=      5-min Rain = 0
KLE1 221036Z 09007KT 03/03 A2996 RMK A01 T00290025  RH  097%=      5-min Rain = 0
KLE1 221037Z 09007KT 03/03 A2996 RMK A01 T00290025  RH  097%=      5-min Rain = 0
KLE1 221038Z 09008KT 03/03 A2996 RMK A01 T00290025  RH  097%=      5-min Rain = 0
KLE1 221039Z 08008KT 03/03 A2996 RMK A01 T00290025  RH  097%=      5-min Rain = 0
KLE1 221040Z 08009KT 03/03 A2996 RMK A01 T00290025  RH  097%=      5-min Rain = 0
KLE1 221041Z 09008KT 03/03 A2996 RMK A01 T00290025  RH  097%=      5-min Rain = 0
KLE1 221042Z 09008KT 03/02 A2996 RMK A01 T00290024  RH  097%=      5-min Rain = 0
KLE1 221043Z 08007KT 03/03 A2996 RMK A01 T00290025  RH  097%=      5-min Rain = 0
KLE1 221044Z 09007KT 03/02 A2996 RMK A01 T00290024  RH  097%=      5-min Rain = 0
KLE1 221045Z 09006KT 03/03 A2996 RMK A01 T00290025  RH  097%=      5-min Rain = 0
KLE1 221046Z 09006KT 03/02 A2996 RMK A01 T00290024  RH  097%=      5-min Rain = 0
KLE1 221047Z 09006KT 03/02 A2996 RMK A01 T00290024  RH  097%=      5-min Rain = 0
KLE1 221048Z 09006KT 03/02 A2996 RMK A01 T00290024  RH  097%=      5-min Rain = 0
KLE1 221049Z 09007KT 03/02 A2996 RMK A01 T00290024  RH  097%=      5-min Rain = 0
KLE1 221050Z 09007KT 03/03 A2996 RMK A01 T00300025  RH  097%=      5-min Rain = 0
KLE1 221051Z 08006KT 03/03 A2996 RMK A01 T00300025  RH  097%=      5-min Rain = 0
KLE1 221052Z 08007KT 03/03 A2997 RMK A01 T00300025  RH  097%=      5-min Rain = 0
KLE1 221053Z 08006KT 03/03 A2997 RMK A01 T00300025  RH  097%=      5-min Rain = 0
KLE1 221054Z 07006KT 03/03 A2997 RMK A01 T00300025  RH  097%=      5-min Rain = 0
KLE1 221055Z 07006KT 03/03 A2997 RMK A01 T00300025  RH  097%=      5-min Rain = 0
KLE1 221056Z 07005KT 03/03 A2997 RMK A01 T00300025  RH  097%=      5-min Rain = 0
KLE1 221057Z 07006KT 03/03 A2997 RMK A01 T00300025  RH  097%=      5-min Rain = 0
KLE1 221058Z 08006KT 03/03 A2997 RMK A01 T00300025  RH  097%=      5-min Rain = 0
KLE1 221059Z 08006KT 03/03 A2997 RMK A01 T00300025  RH  097%=      5-min Rain = 0
KLE1 221100Z 08006KT 03/03 A2997 RMK A01 T00300025  RH  097%=      5-min Rain = 0
KLE1 221101Z 08006KT 03/03 A2997 RMK A01 T00300025  RH  097%=      5-min Rain = 0
KLE1 221102Z 08006KT 03/03 A2997 RMK A01 T00300025  RH  097%=      5-min Rain = 0
KLE1 221103Z 07007KT 03/03 A2997 RMK A01 T00300025  RH  097%=      5-min Rain = 0
KLE1 221104Z 07008KT 03/03 A2997 RMK A01 T00300025  RH  097%=      5-min Rain = 0
KLE1 221105Z 07008KT 03/03 A2996 RMK A01 T00290025  RH  097%=      5-min Rain = 0
KLE1 221106Z 07009KT 03/03 A2996 RMK A01 T00290025  RH  097%=      5-min Rain = 0
KLE1 221107Z 07009KT 03/02 A2996 RMK A01 T00290024  RH  097%=      5-min Rain = 0
KLE1 221108Z 07008KT 03/03 A2996 RMK A01 T00290025  RH  097%=      5-min Rain = 0
KLE1 221109Z 07009KT 03/03 A2996 RMK A01 T00290025  RH  097%=      5-min Rain = 0
KLE1 221110Z 07008KT 03/03 A2996 RMK A01 T00290025  RH  097%=      5-min Rain = 0
KLE1 221111Z 08007KT 03/03 A2997 RMK A01 T00290025  RH  097%=      5-min Rain = 0
KLE1 221112Z 07007KT 03/03 A2997 RMK A01 T00290025  RH  097%=      5-min Rain = 0
KLE1 221113Z 06007KT 03/03 A2997 RMK A01 T00290025  RH  097%=      5-min Rain = 0
KLE1 221114Z 06007KT 03/03 A2996 RMK A01 T00290025  RH  097%=      5-min Rain = 0
KLE1 221115Z 07006KT 03/03 A2996 RMK A01 T00290025  RH  097%=      5-min Rain = 0
KLE1 221116Z 07008KT 03/03 A2997 RMK A01 T00290025  RH  097%=      5-min Rain = 0
KLE1 221117Z 08007KT 03/03 A2997 RMK A01 T00290025  RH  097%=      5-min Rain = 0
KLE1 221118Z 08008KT 03/03 A2997 RMK A01 T00290025  RH  097%=      5-min Rain = 0
KLE1 221119Z 08008KT 03/02 A2996 RMK A01 T00290024  RH  097%=      5-min Rain = 0
KLE1 221120Z 08008KT 03/02 A2997 RMK A01 T00290024  RH  097%=      5-min Rain = 0
KLE1 221121Z 08007KT 03/02 A2997 RMK A01 T00290024  RH  097%=      5-min Rain = 0
KLE1 221122Z 08007KT 03/02 A2997 RMK A01 T00290024  RH  097%=      5-min Rain = 0
KLE1 221123Z 08007KT 03/03 A2997 RMK A01 T00290025  RH  097%=      5-min Rain = 0
KLE1 221124Z 07006KT 03/03 A2997 RMK A01 T00290025  RH  097%=      5-min Rain = 0
KLE1 221125Z 07006KT 03/02 A2997 RMK A01 T00290024  RH  097%=      5-min Rain = 0
KLE1 221126Z 08006KT 03/03 A2997 RMK A01 T00290025  RH  097%=      5-min Rain = 0
KLE1 221127Z 07006KT 03/02 A2997 RMK A01 T00290024  RH  097%=      5-min Rain = 0
KLE1 221128Z 07006KT 03/02 A2997 RMK A01 T00290024  RH  097%=      5-min Rain = 0
KLE1 221129Z 07007KT 03/02 A2997 RMK A01 T00290024  RH  097%=      5-min Rain = 0
KLE1 221130Z 07007KT 03/03 A2997 RMK A01 T00290025  RH  097%=      5-min Rain = 0
KLE1 221131Z 07008KT 03/02 A2997 RMK A01 T00290024  RH  097%=      5-min Rain = 0
KLE1 221132Z 06007KT 03/02 A2996 RMK A01 T00280024  RH  097%=      5-min Rain = 0
KLE1 221133Z 06008KT 03/03 A2996 RMK A01 T00290025  RH  097%=      5-min Rain = 0
KLE1 221134Z 07008KT 03/03 A2996 RMK A01 T00290025  RH  097%=      5-min Rain = 0
KLE1 221135Z 07009KT 03/03 A2996 RMK A01 T00290025  RH  097%=      5-min Rain = 0
KLE1 221136Z 07008KT 03/03 A2996 RMK A01 T00290025  RH  097%=      5-min Rain = 0
KLE1 221137Z 07008KT 03/03 A2996 RMK A01 T00290025  RH  097%=      5-min Rain = 0
KLE1 221138Z 06008KT 03/03 A2996 RMK A01 T00290025  RH  098%=      5-min Rain = 0
KLE1 221139Z 06008KT 03/03 A2996 RMK A01 T00290025  RH  098%=      5-min Rain = 0
KLE1 221140Z 06008KT 03/03 A2996 RMK A01 T00290025  RH  098%=      5-min Rain = 0
KLE1 221141Z 06009KT 03/03 A2996 RMK A01 T00290025  RH  098%=      5-min Rain = 0
KLE1 221142Z 06008KT 03/03 A2996 RMK A01 T00290025  RH  098%=      5-min Rain = 0
KLE1 221143Z 07007KT 03/03 A2996 RMK A01 T00290026  RH  098%=      5-min Rain = 0
KLE1 221144Z 06009KT 03/03 A2996 RMK A01 T00290026  RH  098%=      5-min Rain = 0
KLE1 221145Z 06008KT 03/03 A2996 RMK A01 T00290026  RH  098%=      5-min Rain = 0
KLE1 221146Z 06008KT 03/03 A2996 RMK A01 T00280025  RH  098%=      5-min Rain = 0
KLE1 221147Z 06009KT 03/03 A2996 RMK A01 T00280025  RH  098%=      5-min Rain = 0
KLE1 221148Z 06008KT 03/03 A2996 RMK A01 T00280025  RH  098%=      5-min Rain = 0
KLE1 221149Z 06007KT 03/03 A2996 RMK A01 T00280025  RH  098%=      5-min Rain = 0
KLE1 221150Z 06009KT 03/03 A2996 RMK A01 T00280026  RH  098%=      5-min Rain = 0
KLE1 221151Z 07007KT 03/03 A2996 RMK A01 T00280026  RH  098%=      5-min Rain = 0
KLE1 221152Z 07008KT 03/03 A2996 RMK A01 T00280025  RH  098%=      5-min Rain = 0
KLE1 221153Z 06008KT 03/03 A2996 RMK A01 T00280026  RH  098%=      5-min Rain = 0
KLE1 221154Z 07008KT 03/03 A2996 RMK A01 T00280026  RH  098%=      5-min Rain = 0
KLE1 221155Z 06008KT 03/03 A2996 RMK A01 T00280025  RH  098%=      5-min Rain = 0
KLE1 221156Z 06009KT 03/03 A2996 RMK A01 T00280025  RH  098%=      5-min Rain = 0
KLE1 221157Z 07007KT 03/03 A2996 RMK A01 T00280025  RH  098%=      5-min Rain = 0
KLE1 221158Z 07007KT 03/03 A2997 RMK A01 T00280025  RH  098%=      5-min Rain = 0
KLE1 221159Z 07006KT 03/03 A2997 RMK A01 T00280026  RH  098%=      5-min Rain = 0
KLE1 221200Z 07007KT 03/03 A2997 RMK A01 T00280026  RH  098%=      5-min Rain = 0
KLE1 221201Z 07007KT 03/03 A2996 RMK A01 T00280026  RH  099%=      5-min Rain = 0
KLE1 221202Z 07007KT 03/03 A2996 RMK A01 T00280026  RH  099%=      5-min Rain = 0
KLE1 221203Z 07008KT 03/03 A2997 RMK A01 T00280026  RH  099%=      5-min Rain = 0
KLE1 221204Z 07008KT 03/03 A2997 RMK A01 T00280026  RH  099%=      5-min Rain = 0
KLE1 221205Z 07008KT 03/03 A2997 RMK A01 T00280026  RH  099%=      5-min Rain = 0
KLE1 221206Z 07007KT 03/03 A2997 RMK A01 T00280026  RH  099%=      5-min Rain = 0
KLE1 221207Z 06007KT 03/03 A2997 RMK A01 T00280026  RH  099%=      5-min Rain = 0
KLE1 221208Z 06007KT 03/03 A2997 RMK A01 T00280026  RH  099%=      5-min Rain = 0
KLE1 221209Z 06008KT 03/03 A2997 RMK A01 T00280026  RH  099%=      5-min Rain = 0
KLE1 221210Z 06008KT 03/03 A2997 RMK A01 T00280026  RH  099%=      5-min Rain = 0
KLE1 221211Z 06008KT 03/03 A2997 RMK A01 T00270025  RH  099%=      5-min Rain = 0
KLE1 221212Z 06007KT 03/03 A2997 RMK A01 T00270025  RH  099%=      5-min Rain = 0
KLE1 221213Z 06007KT 03/03 A2997 RMK A01 T00270026  RH  099%=      5-min Rain = 0
KLE1 221214Z 05007KT 03/03 A2997 RMK A01 T00270025  RH  099%=      5-min Rain = 0
KLE1 221215Z 05007KT 03/03 A2997 RMK A01 T00270026  RH  099%=      5-min Rain = 0
KLE1 221216Z 06006KT 03/03 A2997 RMK A01 T00270026  RH  099%=      5-min Rain = 0
KLE1 221217Z 05007KT 03/03 A2997 RMK A01 T00270025  RH  099%=      5-min Rain = 0
KLE1 221218Z 05007KT 03/03 A2997 RMK A01 T00270026  RH  099%=      5-min Rain = 0
KLE1 221219Z 06007KT 03/03 A2997 RMK A01 T00270026  RH  099%=      5-min Rain = 0
KLE1 221220Z 06007KT 03/03 A2997 RMK A01 T00270026  RH  099%=      5-min Rain = 0
KLE1 221221Z 05008KT 03/03 A2997 RMK A01 T00270026  RH  099%=      5-min Rain = 0
KLE1 221222Z 06007KT 03/03 A2997 RMK A01 T00270026  RH  099%=      5-min Rain = 0
KLE1 221223Z 06008KT 03/03 A2997 RMK A01 T00270026  RH  099%=      5-min Rain = 0
KLE1 221224Z 07009KT 03/03 A2997 RMK A01 T00270026  RH  099%=      5-min Rain = 0
KLE1 221225Z 07008KT 03/03 A2997 RMK A01 T00270026  RH  099%=      5-min Rain = 0
KLE1 221226Z 07007KT 03/03 A2997 RMK A01 T00270026  RH  099%=      5-min Rain = 0
KLE1 221227Z 08008KT 03/03 A2997 RMK A01 T00270026  RH  099%=      5-min Rain = 0
KLE1 221228Z 08009KT 03/03 A2997 RMK A01 T00280026  RH  099%=      5-min Rain = 0
KLE1 221229Z 08008KT 03/03 A2997 RMK A01 T00270026  RH  099%=      5-min Rain = 0
KLE1 221230Z 08010KT 03/03 A2997 RMK A01 T00270026  RH  099%=      5-min Rain = 0
KLE1 221231Z 08010KT 03/03 A2997 RMK A01 T00270026  RH  099%=      5-min Rain = 0
KLE1 221232Z 08009KT 03/03 A2997 RMK A01 T00270026  RH  099%=      5-min Rain = 0
KLE1 221233Z 07008KT 03/03 A2997 RMK A01 T00270026  RH  099%=      5-min Rain = 0
KLE1 221234Z 07009KT 03/03 A2997 RMK A01 T00270026  RH  099%=      5-min Rain = 0
KLE1 221235Z 07010KT 03/03 A2997 RMK A01 T00270026  RH  099%=      5-min Rain = 0
KLE1 221236Z 07011KT 03/03 A2997 RMK A01 T00270026  RH  099%=      5-min Rain = 0
KLE1 221237Z 07011KT 03/03 A2997 RMK A01 T00270026  RH  099%=      5-min Rain = 0
KLE1 221238Z 07010KT 03/03 A2997 RMK A01 T00270025  RH  099%=      5-min Rain = 0
KLE1 221239Z 08010KT 03/03 A2997 RMK A01 T00270025  RH  099%=      5-min Rain = 0
KLE1 221240Z 09009KT 03/03 A2998 RMK A01 T00270026  RH  099%=      5-min Rain = 0
KLE1 221241Z 09009KT 03/03 A2998 RMK A01 T00270026  RH  099%=      5-min Rain = 0
KLE1 221242Z 09009KT 03/03 A2998 RMK A01 T00270026  RH  099%=      5-min Rain = 0
KLE1 221243Z 09009KT 03/03 A2998 RMK A01 T00270026  RH  099%=      5-min Rain = 0
KLE1 221244Z 09010KT 03/03 A2998 RMK A01 T00270026  RH  099%=      5-min Rain = 0
KLE1 221245Z 09010KT 03/03 A2998 RMK A01 T00270026  RH  099%=      5-min Rain = 0
KLE1 221246Z 09010KT 03/03 A2998 RMK A01 T00270026  RH  099%=      5-min Rain = 0
KLE1 221247Z 09010KT 03/03 A2997 RMK A01 T00270026  RH  099%=      5-min Rain = 0
KLE1 221248Z 09012KT 03/03 A2997 RMK A01 T00270026  RH  099%=      5-min Rain = 0
KLE1 221249Z 09010KT 03/03 A2997 RMK A01 T00270026  RH  099%=      5-min Rain = 0
KLE1 221250Z 08011KT 03/03 A2997 RMK A01 T00270026  RH  099%=      5-min Rain = 0
KLE1 221251Z 08011KT 03/03 A2997 RMK A01 T00270026  RH  099%=      5-min Rain = 0
KLE1 221252Z 08011KT 03/03 A2997 RMK A01 T00270026  RH  099%=      5-min Rain = 0
KLE1 221253Z 08010KT 03/03 A2997 RMK A01 T00270026  RH  099%=      5-min Rain = 0
KLE1 221254Z 07010KT 03/03 A2997 RMK A01 T00270026  RH  099%=      5-min Rain = 0
KLE1 221255Z 08009KT 03/03 A2997 RMK A01 T00270026  RH  099%=      5-min Rain = 0
KLE1 221256Z 08010KT 03/03 A2997 RMK A01 T00270026  RH  099%=      5-min Rain = 0
KLE1 221257Z 07009KT 03/03 A2997 RMK A01 T00270026  RH  099%=      5-min Rain = 0
KLE1 221258Z 07009KT 03/03 A2996 RMK A01 T00270026  RH  099%=      5-min Rain = 0
KLE1 221259Z 07010KT 03/03 A2996 RMK A01 T00280026  RH  099%=      5-min Rain = 0
KLE1 221300Z 07010KT 03/03 A2996 RMK A01 T00270026  RH  099%=      5-min Rain = 0
KLE1 221301Z 08010KT 03/03 A2996 RMK A01 T00270026  RH  099%=      5-min Rain = 0
KLE1 221302Z 08010KT 03/03 A2997 RMK A01 T00270026  RH  099%=      5-min Rain = 0
KLE1 221303Z 08008KT 03/03 A2997 RMK A01 T00270026  RH  099%=      5-min Rain = 0
KLE1 221304Z 08010KT 03/03 A2997 RMK A01 T00280026  RH  099%=      5-min Rain = 0
KLE1 221305Z 08007KT 03/03 A2997 RMK A01 T00270026  RH  099%=      5-min Rain = 0
KLE1 221306Z 08008KT 03/03 A2997 RMK A01 T00270026  RH  099%=      5-min Rain = 0
KLE1 221307Z 09008KT 03/03 A2997 RMK A01 T00270026  RH  099%=      5-min Rain = 0
KLE1 221308Z 08010KT 03/03 A2997 RMK A01 T00270026  RH  099%=      5-min Rain = 0
KLE1 221309Z 08010KT 03/03 A2997 RMK A01 T00270026  RH  099%=      5-min Rain = 0
KLE1 221310Z 09009KT 03/03 A2997 RMK A01 T00270026  RH  099%=      5-min Rain = 0
KLE1 221311Z 09009KT 03/03 A2997 RMK A01 T00280027  RH  099%=      5-min Rain = 0
KLE1 221312Z 09008KT 03/03 A2997 RMK A01 T00280027  RH  099%=      5-min Rain = 0
KLE1 221313Z 09010KT 03/03 A2997 RMK A01 T00280027  RH  099%=      5-min Rain = 0
KLE1 221314Z 09010KT 03/03 A2997 RMK A01 T00280027  RH  099%=      5-min Rain = 0
KLE1 221315Z 09009KT 03/03 A2997 RMK A01 T00280027  RH  099%=      5-min Rain = 0
KLE1 221316Z 09009KT 03/03 A2998 RMK A01 T00280027  RH  099%=      5-min Rain = 0
KLE1 221317Z 09010KT 03/03 A2998 RMK A01 T00280027  RH  099%=      5-min Rain = 0
KLE1 221318Z 10009KT 03/03 A2998 RMK A01 T00280027  RH  099%=      5-min Rain = 0
KLE1 221319Z 10009KT 03/03 A2998 RMK A01 T00280027  RH  099%=      5-min Rain = 0
KLE1 221320Z 09010KT 03/03 A2998 RMK A01 T00280027  RH  099%=      5-min Rain = 0
KLE1 221321Z 09010KT 03/03 A2998 RMK A01 T00280027  RH  099%=      5-min Rain = 0
KLE1 221322Z 10010KT 03/03 A2998 RMK A01 T00280027  RH  099%=      5-min Rain = 0
KLE1 221323Z 10009KT 03/03 A2998 RMK A01 T00280027  RH  099%=      5-min Rain = 0
KLE1 221324Z 10007KT 03/03 A2998 RMK A01 T00280027  RH  099%=      5-min Rain = 0
KLE1 221325Z 11008KT 03/03 A2998 RMK A01 T00280027  RH  099%=      5-min Rain = 0
KLE1 221326Z 10010KT 03/03 A2998 RMK A01 T00290027  RH  099%=      5-min Rain = 0
KLE1 221327Z 10010KT 03/03 A2998 RMK A01 T00290028  RH  099%=      5-min Rain = 0
KLE1 221328Z 10010KT 03/03 A2998 RMK A01 T00290028  RH  099%=      5-min Rain = 0
KLE1 221329Z 10009KT 03/03 A2998 RMK A01 T00290028  RH  099%=      5-min Rain = 0
KLE1 221330Z 10008KT 03/03 A2998 RMK A01 T00290028  RH  099%=      5-min Rain = 0
KLE1 221331Z 10009KT 03/03 A2998 RMK A01 T00290028  RH  099%=      5-min Rain = 0
KLE1 221332Z 11010KT 03/03 A2998 RMK A01 T00290028  RH  099%=      5-min Rain = 0
KLE1 221333Z 11009KT 03/03 A2998 RMK A01 T00290028  RH  099%=      5-min Rain = 0
KLE1 221334Z 11011KT 03/03 A2998 RMK A01 T00290028  RH  099%=      5-min Rain = 0
KLE1 221335Z 10011KT 03/03 A2998 RMK A01 T00290028  RH  099%=      5-min Rain = 0
KLE1 221336Z 11011KT 03/03 A2998 RMK A01 T00290028  RH  099%=      5-min Rain = 0
KLE1 221337Z 11011KT 03/03 A2998 RMK A01 T00290028  RH  099%=      5-min Rain = 0
KLE1 221338Z 11012KT 03/03 A2998 RMK A01 T00290028  RH  099%=      5-min Rain = 0
KLE1 221339Z 11012KT 03/03 A2998 RMK A01 T00290028  RH  099%=      5-min Rain = 0
KLE1 221340Z 10012KT 03/03 A2998 RMK A01 T00290028  RH  099%=      5-min Rain = 0
KLE1 221341Z 10011KT 03/03 A2998 RMK A01 T00290028  RH  099%=      5-min Rain = 0
KLE1 221342Z 11012KT 03/03 A2998 RMK A01 T00290028  RH  099%=      5-min Rain = 0
KLE1 221343Z 11012KT 03/03 A2998 RMK A01 T00290028  RH  099%=      5-min Rain = 0
KLE1 221344Z 11011KT 03/03 A2998 RMK A01 T00290028  RH  099%=      5-min Rain = 0
KLE1 221345Z 11013KT 03/03 A2998 RMK A01 T00290028  RH  099%=      5-min Rain = 0
KLE1 221346Z 11013KT 03/03 A2998 RMK A01 T00290028  RH  099%=      5-min Rain = 0
KLE1 221347Z 11012KT 03/03 A2998 RMK A01 T00290028  RH  099%=      5-min Rain = 0
KLE1 221348Z 11011KT 03/03 A2998 RMK A01 T00290028  RH  099%=      5-min Rain = 0
KLE1 221349Z 11012KT 03/03 A2998 RMK A01 T00290028  RH  099%=      5-min Rain = 0
KLE1 221350Z 11012KT 03/03 A2998 RMK A01 T00290028  RH  099%=      5-min Rain = 0
KLE1 221351Z 11010KT 03/03 A2998 RMK A01 T00290028  RH  099%=      5-min Rain = 0
KLE1 221352Z 11011KT 03/03 A2998 RMK A01 T00290028  RH  099%=      5-min Rain = 0
KLE1 221353Z 11012KT 03/03 A2998 RMK A01 T00290028  RH  099%=      5-min Rain = 0
KLE1 221354Z 11012KT 03/03 A2998 RMK A01 T00290028  RH  099%=      5-min Rain = 0
KLE1 221355Z 11010KT 03/03 A2998 RMK A01 T00290029  RH  099%=      5-min Rain = 0
KLE1 221356Z 11011KT 03/03 A2998 RMK A01 T00290028  RH  099%=      5-min Rain = 0
KLE1 221357Z 11010KT 03/03 A2998 RMK A01 T00290028  RH  099%=      5-min Rain = 0
KLE1 221358Z 11011KT 03/03 A2998 RMK A01 T00300029  RH  099%=      5-min Rain = 0
KLE1 221359Z 11010KT 03/03 A2998 RMK A01 T00300029  RH  099%=      5-min Rain = 0
KLE1 221400Z 11010KT 03/03 A2998 RMK A01 T00300029  RH  099%=      5-min Rain = 0
KLE1 221401Z 11010KT 03/03 A2998 RMK A01 T00300029  RH  099%=      5-min Rain = 0
KLE1 221402Z 11011KT 03/03 A2999 RMK A01 T00290029  RH  099%=      5-min Rain = 0
KLE1 221403Z 10011KT 03/03 A2999 RMK A01 T00300029  RH  099%=      5-min Rain = 0
KLE1 221404Z 11012KT 03/03 A2999 RMK A01 T00300029  RH  099%=      5-min Rain = 0
KLE1 221405Z 11011KT 03/03 A2999 RMK A01 T00300029  RH  099%=      5-min Rain = 0
KLE1 221406Z 10009KT 03/03 A2999 RMK A01 T00300029  RH  099%=      5-min Rain = 0
KLE1 221407Z 10011KT 03/03 A2999 RMK A01 T00300030  RH  099%=      5-min Rain = 0
KLE1 221408Z 11012KT 03/03 A2999 RMK A01 T00300030  RH  100%=      5-min Rain = 0
KLE1 221409Z 10013KT 03/03 A2999 RMK A01 T00300030  RH  099%=      5-min Rain = 0
KLE1 221410Z 11012KT 03/03 A2999 RMK A01 T00310030  RH  099%=      5-min Rain = 0
KLE1 221411Z 10013KT 03/03 A2999 RMK A01 T00300030  RH  099%=      5-min Rain = 0
KLE1 221412Z 11012KT 03/03 A2999 RMK A01 T00310030  RH  099%=      5-min Rain = 0
KLE1 221413Z 10012KT 03/03 A2999 RMK A01 T00300030  RH  099%=      5-min Rain = 0
KLE1 221414Z 11012KT 03/03 A2999 RMK A01 T00310030  RH  100%=      5-min Rain = 0
KLE1 221415Z 11012KT 03/03 A2999 RMK A01 T00310030  RH  100%=      5-min Rain = 0
KLE1 221416Z 11011KT 03/03 A2999 RMK A01 T00310030  RH  100%=      5-min Rain = 0
KLE1 221417Z 11012KT 03/03 A30 RMK A01 T00300030  RH  099%=      5-min Rain = 0
KLE1 221418Z 11013KT 03/03 A30 RMK A01 T00300030  RH  099%=      5-min Rain = 0
KLE1 221419Z 11012KT 03/03 A30 RMK A01 T00300030  RH  099%=      5-min Rain = 0
KLE1 221420Z 11011KT 03/03 A30 RMK A01 T00310030  RH  099%=      5-min Rain = 0
KLE1 221421Z 11011KT 03/03 A30 RMK A01 T00310030  RH  100%=      5-min Rain = 0
KLE1 221422Z 11011KT 03/03 A30 RMK A01 T00310030  RH  100%=      5-min Rain = 0
KLE1 221423Z 11013KT 03/03 A30 RMK A01 T00310030  RH  100%=      5-min Rain = 0
KLE1 221424Z 11013KT 03/03 A30 RMK A01 T00310030  RH  100%=      5-min Rain = 0
KLE1 221425Z 11012KT 03/03 A30 RMK A01 T00310030  RH  100%=      5-min Rain = 0
KLE1 221426Z 11011KT 03/03 A30 RMK A01 T00310030  RH  100%=      5-min Rain = 0
KLE1 221427Z 11012KT 03/03 A30 RMK A01 T00310031  RH  100%=      5-min Rain = 0
KLE1 221428Z 11012KT 03/03 A30 RMK A01 T00320031  RH  100%=      5-min Rain = 0
KLE1 221429Z 11010KT 03/03 A30 RMK A01 T00310031  RH  100%=      5-min Rain = 0
KLE1 221430Z 11011KT 03/03 A30 RMK A01 T00310031  RH  100%=      5-min Rain = 0
KLE1 221431Z 11011KT 03/03 A30 RMK A01 T00310031  RH  100%=      5-min Rain = 0
KLE1 221432Z 12009KT 03/03 A30 RMK A01 T00310031  RH  100%=      5-min Rain = 0
KLE1 221433Z 12011KT 03/03 A30 RMK A01 T00320031  RH  100%=      5-min Rain = 0
KLE1 221434Z 12010KT 03/03 A30 RMK A01 T00320031  RH  100%=      5-min Rain = 0
KLE1 221435Z 12009KT 03/03 A30 RMK A01 T00320031  RH  100%=      5-min Rain = 0
KLE1 221436Z 12009KT 03/03 A30 RMK A01 T00320031  RH  100%=      5-min Rain = 0
KLE1 221437Z 12009KT 03/03 A3001 RMK A01 T00320032  RH  100%=      5-min Rain = 0
KLE1 221438Z 12010KT 03/03 A3001 RMK A01 T00320032  RH  100%=      5-min Rain = 0
KLE1 221439Z 12010KT 03/03 A3001 RMK A01 T00320032  RH  100%=      5-min Rain = 0
KLE1 221440Z 12011KT 03/03 A30 RMK A01 T00320032  RH  100%=      5-min Rain = 0
KLE1 221441Z 12010KT 03/03 A30 RMK A01 T00320031  RH  099%=      5-min Rain = 0
KLE1 221442Z 12007KT 03/03 A3001 RMK A01 T00320031  RH  100%=      5-min Rain = 0
KLE1 221443Z 12007KT 03/03 A3001 RMK A01 T00320032  RH  100%=      5-min Rain = 0
KLE1 221444Z 12007KT 03/03 A3001 RMK A01 T00330032  RH  100%=      5-min Rain = 0
KLE1 221445Z 13008KT 03/03 A3001 RMK A01 T00330032  RH  100%=      5-min Rain = 0
KLE1 221446Z 14007KT 03/03 A3001 RMK A01 T00330032  RH  100%=      5-min Rain = 0
KLE1 221447Z 13007KT 03/03 A3001 RMK A01 T00320032  RH  100%=      5-min Rain = 0
KLE1 221448Z 13007KT 03/03 A3001 RMK A01 T00320032  RH  100%=      5-min Rain = 0
KLE1 221449Z 12007KT 03/03 A3001 RMK A01 T00330032  RH  100%=      5-min Rain = 0
KLE1 221450Z 12009KT 03/03 A3001 RMK A01 T00330032  RH  100%=      5-min Rain = 0
KLE1 221451Z 13009KT 03/03 A3001 RMK A01 T00330032  RH  100%=      5-min Rain = 0
KLE1 221452Z 13008KT 03/03 A3001 RMK A01 T00330032  RH  100%=      5-min Rain = 0
KLE1 221453Z 13007KT 03/03 A3001 RMK A01 T00330032  RH  100%=      5-min Rain = 0
KLE1 221454Z 12008KT 03/03 A3001 RMK A01 T00330032  RH  100%=      5-min Rain = 0
KLE1 221455Z 11008KT 03/03 A3001 RMK A01 T00330033  RH  100%=      5-min Rain = 0
KLE1 221456Z 12008KT 03/03 A3001 RMK A01 T00330032  RH  100%=      5-min Rain = 0
KLE1 221457Z 12008KT 03/03 A3001 RMK A01 T00330033  RH  100%=      5-min Rain = 0
KLE1 221458Z 11007KT 03/03 A3001 RMK A01 T00330033  RH  100%=      5-min Rain = 0
KLE1 221459Z 11008KT 03/03 A3001 RMK A01 T00330032  RH  100%=      5-min Rain = 0
KLE1 221500Z 11008KT 03/03 A3001 RMK A01 T00330032  RH  100%=      5-min Rain = 0
KLE1 221501Z 12008KT 03/03 A3001 RMK A01 T00330033  RH  100%=      5-min Rain = 0
KLE1 221502Z 12009KT 03/03 A3001 RMK A01 T00330032  RH  100%=      5-min Rain = 0
KLE1 221503Z 12009KT 03/03 A3001 RMK A01 T00330032  RH  100%=      5-min Rain = 0
KLE1 221504Z 12010KT 03/03 A30 RMK A01 T00340033  RH  100%=      5-min Rain = 0
KLE1 221505Z 12010KT 03/03 A30 RMK A01 T00340033  RH  100%=      5-min Rain = 0
KLE1 221506Z 11010KT 03/03 A30 RMK A01 T00340033  RH  100%=      5-min Rain = 0
KLE1 221507Z 12010KT 03/03 A30 RMK A01 T00330033  RH  100%=      5-min Rain = 0
KLE1 221508Z 12010KT 03/03 A30 RMK A01 T00340033  RH  100%=      5-min Rain = 0
KLE1 221509Z 12010KT 03/03 A3001 RMK A01 T00340033  RH  100%=      5-min Rain = 0
KLE1 221510Z 12009KT 03/03 A30 RMK A01 T00340033  RH  100%=      5-min Rain = 0
KLE1 221511Z 11009KT 03/03 A30 RMK A01 T00340033  RH  100%=      5-min Rain = 0
KLE1 221512Z 11008KT 03/03 A30 RMK A01 T00340034  RH  100%=      5-min Rain = 0
KLE1 221513Z 11008KT 04/03 A3001 RMK A01 T00350034  RH  100%=      5-min Rain = 0
KLE1 221514Z 10008KT 04/04 A3001 RMK A01 T00350035  RH  100%=      5-min Rain = 0
KLE1 221515Z 10009KT 04/04 A3001 RMK A01 T00350035  RH  100%=      5-min Rain = 0
KLE1 221516Z 11009KT 03/03 A3001 RMK A01 T00340034  RH  100%=      5-min Rain = 0
KLE1 221517Z 11009KT 03/03 A3001 RMK A01 T00340034  RH  100%=      5-min Rain = 0
KLE1 221518Z 10009KT 04/03 A3001 RMK A01 T00350034  RH  100%=      5-min Rain = 0
KLE1 221519Z 11007KT 04/03 A3001 RMK A01 T00350034  RH  100%=      5-min Rain = 0
KLE1 221520Z 11008KT 03/03 A3001 RMK A01 T00340034  RH  100%=      5-min Rain = 0
KLE1 221521Z 11008KT 04/03 A3001 RMK A01 T00350034  RH  100%=      5-min Rain = 0
KLE1 221522Z 10007KT 04/04 A3001 RMK A01 T00350035  RH  100%=      5-min Rain = 0
KLE1 221523Z 10008KT 04/04 A30 RMK A01 T00360035  RH  100%=      5-min Rain = 0
KLE1 221524Z 10010KT 04/04 A30 RMK A01 T00360035  RH  100%=      5-min Rain = 0
KLE1 221525Z 10009KT 04/04 A30 RMK A01 T00360035  RH  100%=      5-min Rain = 0
KLE1 221526Z 11010KT 04/04 A30 RMK A01 T00360035  RH  100%=      5-min Rain = 0
KLE1 221527Z 11009KT 04/04 A30 RMK A01 T00360035  RH  100%=      5-min Rain = 0
KLE1 221528Z 11010KT 04/04 A3001 RMK A01 T00360035  RH  100%=      5-min Rain = 0
KLE1 221529Z 11010KT 04/04 A3001 RMK A01 T00360035  RH  100%=      5-min Rain = 0
KLE1 221530Z 10010KT 04/04 A30 RMK A01 T00360036  RH  100%=      5-min Rain = 0
KLE1 221531Z 10010KT 04/04 A30 RMK A01 T00370036  RH  100%=      5-min Rain = 0
KLE1 221532Z 10010KT 04/04 A30 RMK A01 T00370036  RH  100%=      5-min Rain = 0
KLE1 221533Z 11010KT 04/04 A3001 RMK A01 T00370036  RH  100%=      5-min Rain = 0
KLE1 221534Z 11010KT 04/04 A3001 RMK A01 T00370036  RH  100%=      5-min Rain = 0
KLE1 221535Z 11010KT 04/04 A3001 RMK A01 T00380037  RH  100%=      5-min Rain = 0
KLE1 221536Z 10010KT 04/04 A3001 RMK A01 T00370037  RH  100%=      5-min Rain = 0
KLE1 221537Z 10010KT 04/04 A3001 RMK A01 T00370037  RH  100%=      5-min Rain = 0
KLE1 221538Z 12009KT 04/04 A3001 RMK A01 T00370037  RH  100%=      5-min Rain = 0
KLE1 221539Z 11010KT 04/04 A3001 RMK A01 T00380037  RH  100%=      5-min Rain = 0
KLE1 221540Z 11009KT 04/04 A3001 RMK A01 T00380037  RH  100%=      5-min Rain = 0
KLE1 221541Z 11010KT 04/04 A3001 RMK A01 T00380037  RH  100%=      5-min Rain = 0
KLE1 221542Z 11010KT 04/04 A3001 RMK A01 T00380037  RH  100%=      5-min Rain = 0
KLE1 221543Z 11009KT 04/04 A3001 RMK A01 T00380037  RH  100%=      5-min Rain = 0
KLE1 221544Z 12010KT 04/04 A3001 RMK A01 T00380037  RH  100%=      5-min Rain = 0
KLE1 221545Z 12009KT 04/04 A3001 RMK A01 T00380037  RH  100%=      5-min Rain = 0
KLE1 221546Z 11008KT 04/04 A3001 RMK A01 T00380037  RH  100%=      5-min Rain = 0
KLE1 221547Z 11009KT 04/04 A30 RMK A01 T00390038  RH  100%=      5-min Rain = 0
KLE1 221548Z 10007KT 04/04 A30 RMK A01 T00390039  RH  100%=      5-min Rain = 0
KLE1 221549Z 10008KT 04/04 A30 RMK A01 T00390039  RH  100%=      5-min Rain = 0
KLE1 221550Z 09008KT 04/04 A30 RMK A01 T00400040  RH  100%=      5-min Rain = 0
KLE1 221551Z 10009KT 04/04 A30 RMK A01 T00400040  RH  100%=      5-min Rain = 0
KLE1 221552Z 10007KT 04/04 A30 RMK A01 T00400039  RH  100%=      5-min Rain = 0
KLE1 221553Z 09007KT 04/04 A30 RMK A01 T00400039  RH  100%=      5-min Rain = 0
KLE1 221554Z 09008KT 04/04 A30 RMK A01 T00400040  RH  100%=      5-min Rain = 0
KLE1 221555Z 09009KT 04/04 A30 RMK A01 T00400040  RH  100%=      5-min Rain = 0
KLE1 221556Z 09008KT 04/04 A30 RMK A01 T00400040  RH  100%=      5-min Rain = 0
KLE1 221557Z 10008KT 04/04 A30 RMK A01 T00400039  RH  100%=      5-min Rain = 0
KLE1 221558Z 10008KT 04/04 A30 RMK A01 T00400039  RH  100%=      5-min Rain = 0
KLE1 221559Z 10008KT 04/04 A30 RMK A01 T00390039  RH  100%=      5-min Rain = 0
KLE1 221600Z 10007KT 04/04 A30 RMK A01 T00390039  RH  100%=      5-min Rain = 0
KLE1 221601Z 10007KT 04/04 A30 RMK A01 T00390039  RH  100%=      5-min Rain = 0
KLE1 221602Z 10006KT 04/04 A30 RMK A01 T00400039  RH  100%=      5-min Rain = 0
KLE1 221603Z 10007KT 04/04 A30 RMK A01 T00400040  RH  100%=      5-min Rain = 0
KLE1 221604Z 11007KT 04/04 A30 RMK A01 T00410040  RH  100%=      5-min Rain = 0
KLE1 221605Z 11007KT 04/04 A30 RMK A01 T00400040  RH  100%=      5-min Rain = 0
KLE1 221606Z 10007KT 04/04 A30 RMK A01 T00400039  RH  100%=      5-min Rain = 0
KLE1 221607Z 09006KT 04/04 A30 RMK A01 T00400039  RH  100%=      5-min Rain = 0
KLE1 221608Z 09005KT 04/04 A30 RMK A01 T00400039  RH  100%=      5-min Rain = 0
KLE1 221609Z 10006KT 04/04 A30 RMK A01 T00400039  RH  100%=      5-min Rain = 0
KLE1 221610Z 11005KT 04/04 A30 RMK A01 T00400039  RH  100%=      5-min Rain = 0
KLE1 221611Z 10006KT 04/04 A30 RMK A01 T00400040  RH  100%=      5-min Rain = 0
KLE1 221612Z 09006KT 04/04 A30 RMK A01 T00410040  RH  100%=      5-min Rain = 0
KLE1 221613Z 09007KT 04/04 A30 RMK A01 T00400040  RH  100%=      5-min Rain = 0
KLE1 221614Z 10006KT 04/04 A30 RMK A01 T00400040  RH  100%=      5-min Rain = 0
KLE1 221615Z 09005KT 04/04 A30 RMK A01 T00410040  RH  100%=      5-min Rain = 0
KLE1 221616Z 09006KT 04/04 A30 RMK A01 T00410041  RH  100%=      5-min Rain = 0
KLE1 221617Z 10004KT 04/04 A30 RMK A01 T00420041  RH  100%=      5-min Rain = 0
KLE1 221618Z 11004KT 04/04 A30 RMK A01 T00410041  RH  100%=      5-min Rain = 0
KLE1 221619Z 12004KT 04/04 A30 RMK A01 T00410041  RH  100%=      5-min Rain = 0
KLE1 221620Z 11005KT 04/04 A3001 RMK A01 T00420041  RH  100%=      5-min Rain = 0
KLE1 221621Z 11004KT 04/04 A30 RMK A01 T00420042  RH  100%=      5-min Rain = 0
KLE1 221622Z 11004KT 04/04 A30 RMK A01 T00430043  RH  100%=      5-min Rain = 0
KLE1 221623Z 11004KT 04/04 A30 RMK A01 T00430043  RH  100%=      5-min Rain = 0
KLE1 221624Z 11005KT 04/04 A30 RMK A01 T00430042  RH  100%=      5-min Rain = 0
KLE1 221625Z 11004KT 04/04 A30 RMK A01 T00420042  RH  100%=      5-min Rain = 0
KLE1 221626Z 11004KT 04/04 A30 RMK A01 T00420041  RH  100%=      5-min Rain = 0
KLE1 221627Z 10004KT 04/04 A30 RMK A01 T00420041  RH  100%=      5-min Rain = 0
KLE1 221628Z 10003KT 04/04 A30 RMK A01 T00420041  RH  100%=      5-min Rain = 0
KLE1 221629Z 09003KT 04/04 A30 RMK A01 T00420041  RH  100%=      5-min Rain = 0
KLE1 221630Z 09004KT 04/04 A30 RMK A01 T00420041  RH  100%=      5-min Rain = 0
KLE1 221631Z 09004KT 04/04 A30 RMK A01 T00420041  RH  100%=      5-min Rain = 0
KLE1 221632Z 10005KT 04/04 A30 RMK A01 T00420042  RH  100%=      5-min Rain = 0
KLE1 221633Z 10005KT 04/04 A30 RMK A01 T00430042  RH  100%=      5-min Rain = 0
KLE1 221634Z 10005KT 04/04 A30 RMK A01 T00430042  RH  100%=      5-min Rain = 0
KLE1 221635Z 11005KT 04/04 A30 RMK A01 T00430042  RH  100%=      5-min Rain = 0
KLE1 221636Z 11004KT 04/04 A30 RMK A01 T00430042  RH  100%=      5-min Rain = 0
KLE1 221637Z 13005KT 04/04 A30 RMK A01 T00420042  RH  100%=      5-min Rain = 0
KLE1 221638Z 12003KT 04/04 A30 RMK A01 T00430042  RH  100%=      5-min Rain = 0
KLE1 221639Z 11003KT 04/04 A30 RMK A01 T00430043  RH  100%=      5-min Rain = 0
KLE1 221640Z 10003KT 04/04 A30 RMK A01 T00430043  RH  100%=      5-min Rain = 0
KLE1 221641Z 12003KT 04/04 A30 RMK A01 T00430043  RH  100%=      5-min Rain = 0
KLE1 221642Z 11005KT 04/04 A30 RMK A01 T00430043  RH  100%=      5-min Rain = 0
KLE1 221643Z 11005KT 04/04 A30 RMK A01 T00440043  RH  100%=      5-min Rain = 0
KLE1 221644Z 11004KT 04/04 A30 RMK A01 T00430043  RH  100%=      5-min Rain = 0
KLE1 221645Z 10004KT 04/04 A30 RMK A01 T00430042  RH  100%=      5-min Rain = 0
KLE1 221646Z 10004KT 04/04 A30 RMK A01 T00440043  RH  100%=      5-min Rain = 0
KLE1 221647Z 10003KT 04/04 A30 RMK A01 T00440044  RH  100%=      5-min Rain = 0
KLE1 221648Z 10003KT 04/04 A30 RMK A01 T00440043  RH  100%=      5-min Rain = 0
KLE1 221649Z 09003KT 04/04 A30 RMK A01 T00440043  RH  100%=      5-min Rain = 0
KLE1 221650Z 09003KT 04/04 A30 RMK A01 T00430043  RH  099%=      5-min Rain = 0
KLE1 221651Z 09003KT 04/04 A30 RMK A01 T00430042  RH  099%=      5-min Rain = 0
KLE1 221652Z 10004KT 04/04 A30 RMK A01 T00430043  RH  100%=      5-min Rain = 0
KLE1 221653Z 10004KT 04/04 A30 RMK A01 T00440043  RH  100%=      5-min Rain = 0
KLE1 221654Z 09003KT 05/04 A30 RMK A01 T00450044  RH  100%=      5-min Rain = 0
KLE1 221655Z 09003KT 05/05 A30 RMK A01 T00450045  RH  100%=      5-min Rain = 0
KLE1 221656Z 09003KT 05/05 A30 RMK A01 T00460045  RH  100%=      5-min Rain = 0
KLE1 221657Z 08002KT 05/05 A2999 RMK A01 T00460045  RH  100%=      5-min Rain = 0
KLE1 221658Z 08002KT 05/05 A2999 RMK A01 T00460045  RH  099%=      5-min Rain = 0
KLE1 221659Z 08002KT 05/05 A2999 RMK A01 T00460045  RH  099%=      5-min Rain = 0
KLE1 221700Z 08002KT 05/05 A2999 RMK A01 T00460046  RH  099%=      5-min Rain = 0
KLE1 221701Z 08002KT 05/05 A2999 RMK A01 T00470046  RH  099%=      5-min Rain = 0
KLE1 221702Z 07002KT 05/05 A2999 RMK A01 T00460045  RH  099%=      5-min Rain = 0
KLE1 221703Z 07002KT 05/04 A2999 RMK A01 T00450044  RH  099%=      5-min Rain = 0
KLE1 221704Z 05002KT 05/05 A2999 RMK A01 T00460045  RH  099%=      5-min Rain = 0
KLE1 221705Z 04001KT 05/04 A2999 RMK A01 T00450044  RH  099%=      5-min Rain = 0
KLE1 221706Z 02001KT 05/04 A2999 RMK A01 T00450044  RH  099%=      5-min Rain = 0
KLE1 221707Z 01001KT 05/04 A2999 RMK A01 T00450044  RH  099%=      5-min Rain = 0
KLE1 221708Z 02001KT 05/04 A2999 RMK A01 T00450044  RH  099%=      5-min Rain = 0
KLE1 221709Z 02003KT 05/04 A2999 RMK A01 T00450044  RH  099%=      5-min Rain = 0
KLE1 221710Z 03003KT 05/05 A2999 RMK A01 T00460045  RH  099%=      5-min Rain = 0
KLE1 221711Z 03002KT 05/05 A2999 RMK A01 T00470046  RH  099%=      5-min Rain = 0
KLE1 221712Z 04003KT 05/05 A2999 RMK A01 T00490048  RH  099%=      5-min Rain = 0
KLE1 221713Z 06003KT 05/05 A2999 RMK A01 T00490048  RH  099%=      5-min Rain = 0
KLE1 221714Z 07002KT 05/05 A2999 RMK A01 T00480046  RH  099%=      5-min Rain = 0
KLE1 221715Z 10001KT 05/05 A2999 RMK A01 T00470046  RH  099%=      5-min Rain = 0
KLE1 221716Z 11002KT 05/05 A2999 RMK A01 T00470046  RH  099%=      5-min Rain = 0
KLE1 221717Z 11002KT 05/05 A2999 RMK A01 T00470046  RH  099%=      5-min Rain = 0
KLE1 221718Z 09002KT 05/05 A2999 RMK A01 T00470046  RH  099%=      5-min Rain = 0
KLE1 221719Z 09001KT 05/05 A2999 RMK A01 T00470046  RH  099%=      5-min Rain = 0
KLE1 221720Z 11002KT 05/05 A2999 RMK A01 T00470046  RH  099%=      5-min Rain = 0
KLE1 221721Z 07002KT 05/05 A2999 RMK A01 T00480046  RH  099%=      5-min Rain = 0
KLE1 221722Z 08002KT 05/05 A2999 RMK A01 T00480047  RH  099%=      5-min Rain = 0
KLE1 221723Z 09002KT 05/05 A2999 RMK A01 T00490048  RH  099%=      5-min Rain = 0
KLE1 221724Z 09001KT 05/05 A2999 RMK A01 T00490048  RH  099%=      5-min Rain = 0
KLE1 221725Z 09001KT 05/05 A2999 RMK A01 T00490047  RH  099%=      5-min Rain = 0
KLE1 221726Z 11001KT 05/05 A2999 RMK A01 T00480046  RH  099%=      5-min Rain = 0
KLE1 221727Z 09001KT 05/05 A2999 RMK A01 T00480046  RH  099%=      5-min Rain = 0
KLE1 221728Z 08002KT 05/05 A2999 RMK A01 T00480047  RH  099%=      5-min Rain = 0
KLE1 221729Z 09002KT 05/05 A2999 RMK A01 T00490048  RH  099%=      5-min Rain = 0
KLE1 221730Z 12003KT 05/05 A2999 RMK A01 T00490048  RH  099%=      5-min Rain = 0
KLE1 221731Z 12003KT 05/05 A2999 RMK A01 T00490048  RH  099%=      5-min Rain = 0
KLE1 221732Z 14003KT 05/05 A2999 RMK A01 T00490047  RH  099%=      5-min Rain = 0
KLE1 221733Z 14002KT 05/05 A2999 RMK A01 T00490047  RH  099%=      5-min Rain = 0
KLE1 221734Z 12003KT 05/05 A2999 RMK A01 T00500049  RH  099%=      5-min Rain = 0
KLE1 221735Z 12004KT 05/05 A2999 RMK A01 T00510050  RH  099%=      5-min Rain = 0
KLE1 221736Z 10004KT 05/05 A2999 RMK A01 T00530052  RH  099%=      5-min Rain = 0
KLE1 221737Z 10004KT 05/05 A2999 RMK A01 T00530052  RH  099%=      5-min Rain = 0
KLE1 221738Z 12005KT 05/05 A2999 RMK A01 T00530051  RH  099%=      5-min Rain = 0
KLE1 221739Z 11005KT 05/05 A2999 RMK A01 T00530051  RH  099%=      5-min Rain = 0
KLE1 221740Z 11004KT 05/05 A2999 RMK A01 T00520050  RH  098%=      5-min Rain = 0
KLE1 221741Z 11004KT 05/05 A2999 RMK A01 T00530051  RH  099%=      5-min Rain = 0
KLE1 221742Z 10005KT 05/05 A2998 RMK A01 T00540052  RH  098%=      5-min Rain = 0
KLE1 221743Z 10004KT 05/05 A2998 RMK A01 T00530051  RH  098%=      5-min Rain = 0
KLE1 221744Z 10005KT 05/05 A2999 RMK A01 T00530050  RH  098%=      5-min Rain = 0
KLE1 221745Z 10003KT 05/05 A2999 RMK A01 T00540051  RH  098%=      5-min Rain = 0
KLE1 221746Z 10004KT 06/05 A2998 RMK A01 T00550053  RH  098%=      5-min Rain = 0
KLE1 221747Z 11003KT 06/05 A2998 RMK A01 T00550053  RH  098%=      5-min Rain = 0
KLE1 221748Z 11006KT 05/05 A2998 RMK A01 T00540051  RH  098%=      5-min Rain = 0
KLE1 221749Z 11005KT 05/05 A2998 RMK A01 T00540051  RH  098%=      5-min Rain = 0
KLE1 221750Z 10004KT 05/05 A2998 RMK A01 T00540051  RH  098%=      5-min Rain = 0
KLE1 221751Z 11005KT 05/05 A2998 RMK A01 T00540051  RH  098%=      5-min Rain = 0
KLE1 221752Z 10004KT 05/05 A2998 RMK A01 T00530049  RH  097%=      5-min Rain = 0
KLE1 221753Z 10004KT 05/05 A2998 RMK A01 T00520048  RH  097%=      5-min Rain = 0
KLE1 221754Z 09004KT 05/05 A2998 RMK A01 T00520048  RH  097%=      5-min Rain = 0
KLE1 221755Z 09005KT 05/05 A2998 RMK A01 T00530049  RH  098%=      5-min Rain = 0
KLE1 221756Z 08005KT 05/05 A2998 RMK A01 T00530049  RH  097%=      5-min Rain = 0
KLE1 221757Z 10004KT 05/05 A2998 RMK A01 T00540050  RH  098%=      5-min Rain = 0
KLE1 221758Z 11004KT 05/05 A2998 RMK A01 T00540051  RH  098%=      5-min Rain = 0
KLE1 221759Z 11004KT 05/05 A2998 RMK A01 T00540051  RH  097%=      5-min Rain = 0
KLE1 221800Z 09003KT 06/05 A2998 RMK A01 T00550051  RH  098%=      5-min Rain = 0
KLE1 221801Z 09004KT 06/05 A2998 RMK A01 T00550052  RH  098%=      5-min Rain = 0
KLE1 221802Z 10004KT 06/05 A2998 RMK A01 T00550051  RH  097%=      5-min Rain = 0
KLE1 221803Z 11005KT 06/05 A2998 RMK A01 T00550051  RH  097%=      5-min Rain = 0
KLE1 221804Z 11006KT 06/05 A2998 RMK A01 T00560052  RH  097%=      5-min Rain = 0
KLE1 221805Z 11004KT 06/05 A2998 RMK A01 T00560052  RH  097%=      5-min Rain = 0
KLE1 221806Z 09004KT 06/05 A2997 RMK A01 T00560051  RH  097%=      5-min Rain = 0
KLE1 221807Z 11004KT 06/05 A2997 RMK A01 T00560052  RH  097%=      5-min Rain = 0
KLE1 221808Z 10005KT 06/05 A2997 RMK A01 T00570053  RH  097%=      5-min Rain = 0
KLE1 221809Z 10005KT 06/05 A2997 RMK A01 T00560052  RH  097%=      5-min Rain = 0
KLE1 221810Z 10004KT 06/05 A2997 RMK A01 T00560052  RH  097%=      5-min Rain = 0
KLE1 221811Z 09005KT 06/05 A2997 RMK A01 T00560052  RH  097%=      5-min Rain = 0
KLE1 221812Z 10004KT 06/05 A2997 RMK A01 T00570052  RH  097%=      5-min Rain = 0
KLE1 221813Z 11004KT 06/05 A2997 RMK A01 T00570052  RH  097%=      5-min Rain = 0
KLE1 221814Z 11004KT 06/05 A2997 RMK A01 T00570052  RH  097%=      5-min Rain = 0
KLE1 221815Z 11006KT 06/05 A2997 RMK A01 T00570052  RH  097%=      5-min Rain = 0
KLE1 221816Z 12005KT 06/05 A2997 RMK A01 T00570052  RH  097%=      5-min Rain = 0
KLE1 221817Z 11005KT 06/05 A2997 RMK A01 T00570052  RH  096%=      5-min Rain = 0
KLE1 221818Z 11005KT 06/05 A2997 RMK A01 T00580053  RH  097%=      5-min Rain = 0
KLE1 221819Z 11006KT 06/05 A2996 RMK A01 T00570052  RH  096%=      5-min Rain = 0
KLE1 221820Z 11005KT 06/05 A2996 RMK A01 T00580052  RH  097%=      5-min Rain = 0
KLE1 221821Z 10007KT 06/05 A2996 RMK A01 T00590054  RH  097%=      5-min Rain = 0
KLE1 221822Z 10006KT 06/05 A2996 RMK A01 T00590054  RH  097%=      5-min Rain = 0
KLE1 221823Z 10007KT 06/05 A2996 RMK A01 T00590054  RH  097%=      5-min Rain = 0
KLE1 221824Z 10007KT 06/05 A2996 RMK A01 T00590053  RH  096%=      5-min Rain = 0
KLE1 221825Z 09006KT 06/06 A2996 RMK A01 T00600055  RH  097%=      5-min Rain = 0
KLE1 221826Z 10007KT 06/06 A2996 RMK A01 T00610056  RH  097%=      5-min Rain = 0
KLE1 221827Z 10008KT 06/06 A2996 RMK A01 T00610056  RH  097%=      5-min Rain = 0
KLE1 221828Z 09007KT 06/06 A2996 RMK A01 T00600055  RH  096%=      5-min Rain = 0
KLE1 221829Z 10006KT 06/05 A2996 RMK A01 T00590053  RH  096%=      5-min Rain = 0
KLE1 221830Z 11008KT 06/05 A2996 RMK A01 T00590053  RH  096%=      5-min Rain = 0
KLE1 221831Z 11008KT 06/05 A2996 RMK A01 T00590054  RH  096%=      5-min Rain = 0
KLE1 221832Z 11009KT 06/05 A2996 RMK A01 T00580052  RH  096%=      5-min Rain = 0
KLE1 221833Z 09007KT 06/05 A2996 RMK A01 T00580052  RH  096%=      5-min Rain = 0
KLE1 221834Z 09008KT 06/05 A2996 RMK A01 T00580053  RH  096%=      5-min Rain = 0
KLE1 221835Z 09008KT 06/05 A2995 RMK A01 T00590053  RH  096%=      5-min Rain = 0
KLE1 221836Z 10007KT 06/05 A2995 RMK A01 T00580052  RH  096%=      5-min Rain = 0
KLE1 221837Z 09008KT 06/05 A2995 RMK A01 T00580052  RH  096%=      5-min Rain = 0
KLE1 221838Z 09009KT 06/05 A2995 RMK A01 T00580052  RH  096%=      5-min Rain = 0
KLE1 221839Z 10007KT 06/05 A2995 RMK A01 T00580052  RH  096%=      5-min Rain = 0
KLE1 221840Z 10008KT 06/05 A2995 RMK A01 T00590054  RH  096%=      5-min Rain = 0
KLE1 221841Z 10007KT 06/05 A2995 RMK A01 T00600054  RH  096%=      5-min Rain = 0
KLE1 221842Z 10008KT 06/05 A2995 RMK A01 T00600054  RH  096%=      5-min Rain = 0
KLE1 221843Z 10007KT 06/05 A2995 RMK A01 T00590053  RH  096%=      5-min Rain = 0
KLE1 221844Z 11006KT 06/05 A2995 RMK A01 T00600054  RH  096%=      5-min Rain = 0
KLE1 221845Z 11006KT 06/06 A2995 RMK A01 T00600055  RH  096%=      5-min Rain = 0
KLE1 221846Z 10007KT 06/06 A2995 RMK A01 T00610056  RH  096%=      5-min Rain = 0
KLE1 221847Z 09006KT 06/05 A2995 RMK A01 T00600054  RH  096%=      5-min Rain = 0
KLE1 221848Z 09007KT 06/05 A2995 RMK A01 T00600054  RH  096%=      5-min Rain = 0
KLE1 221849Z 08008KT 06/05 A2994 RMK A01 T00590053  RH  096%=      5-min Rain = 0
KLE1 221850Z 09007KT 06/05 A2994 RMK A01 T00590053  RH  096%=      5-min Rain = 0
KLE1 221851Z 09007KT 06/05 A2994 RMK A01 T00590053  RH  096%=      5-min Rain = 0
KLE1 221852Z 10005KT 06/05 A2994 RMK A01 T00600053  RH  096%=      5-min Rain = 0
KLE1 221853Z 10006KT 06/05 A2994 RMK A01 T00600054  RH  096%=      5-min Rain = 0
KLE1 221854Z 09005KT 06/06 A2994 RMK A01 T00620056  RH  096%=      5-min Rain = 0
KLE1 221855Z 10006KT 06/06 A2994 RMK A01 T00630058  RH  096%=      5-min Rain = 0
KLE1 221856Z 11006KT 06/06 A2994 RMK A01 T00630056  RH  096%=      5-min Rain = 0
KLE1 221857Z 11006KT 06/06 A2994 RMK A01 T00620055  RH  095%=      5-min Rain = 0
KLE1 221858Z 10007KT 06/06 A2994 RMK A01 T00620055  RH  095%=      5-min Rain = 0
KLE1 221859Z 08007KT 06/05 A2994 RMK A01 T00620054  RH  095%=      5-min Rain = 0
KLE1 221900Z 08006KT 06/06 A2993 RMK A01 T00620055  RH  095%=      5-min Rain = 0
KLE1 221901Z 08007KT 06/06 A2993 RMK A01 T00620055  RH  095%=      5-min Rain = 0
KLE1 221902Z 09007KT 06/05 A2993 RMK A01 T00610053  RH  095%=      5-min Rain = 0
KLE1 221903Z 08006KT 06/05 A2993 RMK A01 T00600052  RH  095%=      5-min Rain = 0
KLE1 221904Z 07006KT 06/05 A2993 RMK A01 T00600052  RH  095%=      5-min Rain = 0
KLE1 221905Z 08005KT 06/05 A2993 RMK A01 T00600052  RH  095%=      5-min Rain = 0
KLE1 221906Z 08005KT 06/05 A2993 RMK A01 T00600052  RH  095%=      5-min Rain = 0
KLE1 221907Z 09006KT 06/05 A2993 RMK A01 T00610054  RH  095%=      5-min Rain = 0
KLE1 221908Z 09005KT 06/05 A2993 RMK A01 T00620054  RH  095%=      5-min Rain = 0
KLE1 221909Z 09005KT 06/05 A2993 RMK A01 T00610052  RH  094%=      5-min Rain = 0
KLE1 221910Z 09004KT 06/05 A2993 RMK A01 T00610053  RH  094%=      5-min Rain = 0
KLE1 221911Z 08005KT 06/05 A2993 RMK A01 T00610053  RH  094%=      5-min Rain = 0
KLE1 221912Z 07007KT 06/05 A2993 RMK A01 T00620053  RH  094%=      5-min Rain = 0
KLE1 221913Z 08008KT 06/05 A2993 RMK A01 T00620053  RH  094%=      5-min Rain = 0
KLE1 221914Z 07006KT 06/05 A2993 RMK A01 T00620053  RH  094%=      5-min Rain = 0
KLE1 221915Z 07006KT 06/05 A2993 RMK A01 T00610053  RH  095%=      5-min Rain = 0
KLE1 221916Z 06006KT 06/05 A2992 RMK A01 T00610052  RH  094%=      5-min Rain = 0
KLE1 221917Z 06007KT 06/05 A2992 RMK A01 T00610053  RH  095%=      5-min Rain = 0
KLE1 221918Z 06006KT 06/05 A2992 RMK A01 T00610053  RH  095%=      5-min Rain = 0
KLE1 221919Z 08006KT 06/05 A2992 RMK A01 T00610053  RH  095%=      5-min Rain = 0
KLE1 221920Z 08006KT 06/06 A2992 RMK A01 T00620055  RH  095%=      5-min Rain = 0
KLE1 221921Z 07008KT 06/06 A2992 RMK A01 T00620055  RH  095%=      5-min Rain = 0
KLE1 221922Z 08008KT 06/05 A2992 RMK A01 T00610053  RH  094%=      5-min Rain = 0
KLE1 221923Z 08007KT 06/05 A2992 RMK A01 T00610052  RH  094%=      5-min Rain = 0
KLE1 221924Z 08006KT 06/05 A2992 RMK A01 T00610053  RH  094%=      5-min Rain = 0
KLE1 221925Z 07006KT 06/05 A2992 RMK A01 T00610053  RH  094%=      5-min Rain = 0
KLE1 221926Z 07005KT 06/05 A2992 RMK A01 T00610052  RH  094%=      5-min Rain = 0
KLE1 221927Z 08006KT 06/05 A2992 RMK A01 T00600052  RH  094%=      5-min Rain = 0
KLE1 221928Z 07008KT 06/05 A2992 RMK A01 T00610053  RH  094%=      5-min Rain = 0
KLE1 221929Z 10007KT 06/05 A2991 RMK A01 T00620053  RH  094%=      5-min Rain = 0
KLE1 221930Z 12006KT 06/05 A2991 RMK A01 T00620053  RH  094%=      5-min Rain = 0
KLE1 221931Z 12006KT 06/05 A2991 RMK A01 T00630053  RH  094%=      5-min Rain = 0
KLE1 221932Z 11004KT 06/05 A2991 RMK A01 T00630052  RH  093%=      5-min Rain = 0
KLE1 221933Z 11005KT 06/05 A2991 RMK A01 T00630052  RH  093%=      5-min Rain = 0
KLE1 221934Z 10005KT 06/05 A2991 RMK A01 T00620052  RH  093%=      5-min Rain = 0
KLE1 221935Z 10006KT 06/05 A2991 RMK A01 T00620052  RH  093%=      5-min Rain = 0
KLE1 221936Z 10006KT 06/05 A2991 RMK A01 T00630053  RH  093%=      5-min Rain = 0
KLE1 221937Z 10005KT 06/05 A2991 RMK A01 T00640053  RH  093%=      5-min Rain = 0
KLE1 221938Z 10006KT 06/05 A2991 RMK A01 T00630053  RH  093%=      5-min Rain = 0
KLE1 221939Z 11005KT 06/05 A2991 RMK A01 T00630053  RH  093%=      5-min Rain = 0
KLE1 221940Z 11004KT 06/05 A2991 RMK A01 T00640053  RH  093%=      5-min Rain = 0
KLE1 221941Z 11004KT 06/05 A2991 RMK A01 T00640054  RH  093%=      5-min Rain = 0
KLE1 221942Z 12005KT 07/06 A2991 RMK A01 T00650055  RH  093%=      5-min Rain = 0
KLE1 221943Z 11006KT 07/05 A2991 RMK A01 T00650054  RH  092%=      5-min Rain = 0
KLE1 221944Z 10005KT 07/06 A2991 RMK A01 T00660055  RH  093%=      5-min Rain = 0
KLE1 221945Z 10006KT 07/06 A2991 RMK A01 T00670056  RH  093%=      5-min Rain = 0
KLE1 221946Z 10006KT 07/06 A2991 RMK A01 T00670057  RH  093%=      5-min Rain = 0
KLE1 221947Z 11006KT 07/06 A2991 RMK A01 T00670055  RH  092%=      5-min Rain = 0
KLE1 221948Z 11006KT 07/06 A2991 RMK A01 T00670055  RH  092%=      5-min Rain = 0
KLE1 221949Z 11006KT 07/06 A2991 RMK A01 T00670055  RH  092%=      5-min Rain = 0
KLE1 221950Z 10005KT 07/05 A2991 RMK A01 T00670054  RH  091%=      5-min Rain = 0
KLE1 221951Z 11005KT 07/05 A299 RMK A01 T00670054  RH  092%=      5-min Rain = 0
KLE1 221952Z 11005KT 07/05 A299 RMK A01 T00670054  RH  091%=      5-min Rain = 0
KLE1 221953Z 12004KT 07/05 A299 RMK A01 T00670053  RH  091%=      5-min Rain = 0
KLE1 221954Z 11004KT 07/05 A299 RMK A01 T00660053  RH  091%=      5-min Rain = 0
KLE1 221955Z 10005KT 07/05 A299 RMK A01 T00660053  RH  091%=      5-min Rain = 0
KLE1 221956Z 10008KT 07/05 A299 RMK A01 T00660054  RH  092%=      5-min Rain = 0
KLE1 221957Z 10008KT 07/05 A299 RMK A01 T00660054  RH  092%=      5-min Rain = 0
KLE1 221958Z 11006KT 07/05 A299 RMK A01 T00660053  RH  092%=      5-min Rain = 0
KLE1 221959Z 09008KT 07/05 A299 RMK A01 T00650053  RH  092%=      5-min Rain = 0
KLE1 222000Z 10007KT 07/05 A299 RMK A01 T00650054  RH  092%=      5-min Rain = 0
KLE1 222001Z 10007KT 07/06 A299 RMK A01 T00660055  RH  093%=      5-min Rain = 0
KLE1 222002Z 10006KT 07/05 A299 RMK A01 T00660054  RH  092%=      5-min Rain = 0
KLE1 222003Z 10005KT 07/05 A299 RMK A01 T00650053  RH  092%=      5-min Rain = 0
KLE1 222004Z 08005KT 07/06 A299 RMK A01 T00660055  RH  093%=      5-min Rain = 0
KLE1 222005Z 08006KT 07/06 A299 RMK A01 T00660055  RH  093%=      5-min Rain = 0
KLE1 222006Z 08006KT 07/05 A299 RMK A01 T00660054  RH  092%=      5-min Rain = 0
KLE1 222007Z 09007KT 07/05 A299 RMK A01 T00660054  RH  092%=      5-min Rain = 0
KLE1 222008Z 09008KT 07/05 A2989 RMK A01 T00660054  RH  092%=      5-min Rain = 0
KLE1 222009Z 09007KT 07/05 A2989 RMK A01 T00660054  RH  092%=      5-min Rain = 0
KLE1 222010Z 09006KT 07/05 A2989 RMK A01 T00660054  RH  092%=      5-min Rain = 0
KLE1 222011Z 09006KT 07/06 A2989 RMK A01 T00670056  RH  093%=      5-min Rain = 0
KLE1 222012Z 08008KT 07/06 A2989 RMK A01 T00670056  RH  093%=      5-min Rain = 0
KLE1 222013Z 10008KT 07/06 A2989 RMK A01 T00670055  RH  092%=      5-min Rain = 0
KLE1 222014Z 09007KT 07/05 A2989 RMK A01 T00670054  RH  092%=      5-min Rain = 0
KLE1 222015Z 09008KT 07/06 A2989 RMK A01 T00670055  RH  092%=      5-min Rain = 0
KLE1 222016Z 10008KT 07/05 A2989 RMK A01 T00670054  RH  092%=      5-min Rain = 0
KLE1 222017Z 10008KT 07/05 A2989 RMK A01 T00670053  RH  091%=      5-min Rain = 0
KLE1 222018Z 10007KT 07/05 A2989 RMK A01 T00670053  RH  091%=      5-min Rain = 0
KLE1 222019Z 10006KT 07/05 A2989 RMK A01 T00670053  RH  091%=      5-min Rain = 0
KLE1 222020Z 10007KT 07/05 A2988 RMK A01 T00670054  RH  091%=      5-min Rain = 0
KLE1 222021Z 11007KT 07/06 A2988 RMK A01 T00680055  RH  091%=      5-min Rain = 0
KLE1 222022Z 11008KT 07/06 A2988 RMK A01 T00690056  RH  091%=      5-min Rain = 0
KLE1 222023Z 10008KT 07/06 A2988 RMK A01 T00690055  RH  091%=      5-min Rain = 0
KLE1 222024Z 10008KT 07/06 A2988 RMK A01 T00690055  RH  091%=      5-min Rain = 0
KLE1 222025Z 10008KT 07/06 A2988 RMK A01 T00690055  RH  091%=      5-min Rain = 0
KLE1 222026Z 10008KT 07/05 A2988 RMK A01 T00680054  RH  091%=      5-min Rain = 0
KLE1 222027Z 09007KT 07/05 A2989 RMK A01 T00680053  RH  091%=      5-min Rain = 0
KLE1 222028Z 09006KT 07/05 A2989 RMK A01 T00680054  RH  091%=      5-min Rain = 0
KLE1 222029Z 09007KT 07/06 A2988 RMK A01 T00680055  RH  091%=      5-min Rain = 0
KLE1 222030Z 10008KT 07/06 A2988 RMK A01 T00680055  RH  092%=      5-min Rain = 0
KLE1 222031Z 10007KT 07/06 A2988 RMK A01 T00680055  RH  091%=      5-min Rain = 0
KLE1 222032Z 09008KT 07/06 A2988 RMK A01 T00690055  RH  091%=      5-min Rain = 0
KLE1 222033Z 10006KT 07/06 A2988 RMK A01 T00690055  RH  091%=      5-min Rain = 0
KLE1 222034Z 09006KT 07/06 A2988 RMK A01 T00690055  RH  090%=      5-min Rain = 0
KLE1 222035Z 11006KT 07/06 A2988 RMK A01 T00690055  RH  091%=      5-min Rain = 0
KLE1 222036Z 11007KT 07/06 A2988 RMK A01 T00700057  RH  091%=      5-min Rain = 0
KLE1 222037Z 11007KT 07/06 A2988 RMK A01 T00710056  RH  090%=      5-min Rain = 0
KLE1 222038Z 10007KT 07/06 A2988 RMK A01 T00710055  RH  090%=      5-min Rain = 0
KLE1 222039Z 11007KT 07/06 A2988 RMK A01 T00710055  RH  089%=      5-min Rain = 0
KLE1 222040Z 12009KT 07/06 A2988 RMK A01 T00710055  RH  089%=      5-min Rain = 0
KLE1 222041Z 13007KT 07/05 A2988 RMK A01 T00710054  RH  089%=      5-min Rain = 0
KLE1 222042Z 12007KT 07/05 A2988 RMK A01 T00710054  RH  089%=      5-min Rain = 0
KLE1 222043Z 12006KT 07/06 A2988 RMK A01 T00710055  RH  090%=      5-min Rain = 0
KLE1 222044Z 11006KT 07/06 A2988 RMK A01 T00710056  RH  090%=      5-min Rain = 0
KLE1 222045Z 11006KT 07/06 A2988 RMK A01 T00720056  RH  090%=      5-min Rain = 0
KLE1 222046Z 12004KT 07/06 A2988 RMK A01 T00730055  RH  089%=      5-min Rain = 0
KLE1 222047Z 12005KT 07/06 A2988 RMK A01 T00730057  RH  090%=      5-min Rain = 0
KLE1 222048Z 13007KT 07/06 A2988 RMK A01 T00730057  RH  089%=      5-min Rain = 0
KLE1 222049Z 13007KT 07/06 A2988 RMK A01 T00730056  RH  089%=      5-min Rain = 0
KLE1 222050Z 13005KT 07/06 A2988 RMK A01 T00730056  RH  089%=      5-min Rain = 0
KLE1 222051Z 12005KT 07/06 A2988 RMK A01 T00730055  RH  088%=      5-min Rain = 0
KLE1 222052Z 10006KT 07/06 A2988 RMK A01 T00730056  RH  089%=      5-min Rain = 0
KLE1 222053Z 08006KT 07/06 A2988 RMK A01 T00730056  RH  089%=      5-min Rain = 0
KLE1 222054Z 10007KT 07/06 A2988 RMK A01 T00740057  RH  089%=      5-min Rain = 0
KLE1 222055Z 10006KT 07/06 A2988 RMK A01 T00740056  RH  088%=      5-min Rain = 0
KLE1 222056Z 09008KT 07/06 A2988 RMK A01 T00730055  RH  088%=      5-min Rain = 0
KLE1 222057Z 10007KT 07/06 A2988 RMK A01 T00730056  RH  089%=      5-min Rain = 0
KLE1 222058Z 10006KT 07/06 A2988 RMK A01 T00740056  RH  088%=      5-min Rain = 0
KLE1 222059Z 10005KT 07/06 A2988 RMK A01 T00740055  RH  088%=      5-min Rain = 0
KLE1 222100Z 10007KT 07/06 A2988 RMK A01 T00740056  RH  088%=      5-min Rain = 0
KLE1 222101Z 10008KT 07/06 A2988 RMK A01 T00740056  RH  088%=      5-min Rain = 0
KLE1 222102Z 10007KT 07/06 A2988 RMK A01 T00740055  RH  088%=      5-min Rain = 0
KLE1 222103Z 11007KT 07/06 A2988 RMK A01 T00740056  RH  088%=      5-min Rain = 0
KLE1 222104Z 11007KT 07/06 A2988 RMK A01 T00740055  RH  088%=      5-min Rain = 0
KLE1 222105Z 10006KT 07/06 A2988 RMK A01 T00740055  RH  088%=      5-min Rain = 0
KLE1 222106Z 10006KT 07/06 A2988 RMK A01 T00740056  RH  088%=      5-min Rain = 0
KLE1 222107Z 11006KT 07/06 A2988 RMK A01 T00740055  RH  088%=      5-min Rain = 0
KLE1 222108Z 10005KT 07/06 A2988 RMK A01 T00740056  RH  088%=      5-min Rain = 0
KLE1 222109Z 11007KT 08/06 A2988 RMK A01 T00750056  RH  088%=      5-min Rain = 0
KLE1 222110Z 11007KT 08/06 A2988 RMK A01 T00750056  RH  088%=      5-min Rain = 0
KLE1 222111Z 11007KT 08/06 A2988 RMK A01 T00750055  RH  087%=      5-min Rain = 0
KLE1 222112Z 12006KT 07/06 A2988 RMK A01 T00740055  RH  087%=      5-min Rain = 0
KLE1 222113Z 10007KT 07/06 A2988 RMK A01 T00740056  RH  088%=      5-min Rain = 0
KLE1 222114Z 09007KT 08/06 A2988 RMK A01 T00750056  RH  088%=      5-min Rain = 0
KLE1 222115Z 10007KT 08/06 A2988 RMK A01 T00750057  RH  088%=      5-min Rain = 0
KLE1 222116Z 10006KT 08/06 A2988 RMK A01 T00760056  RH  087%=      5-min Rain = 0
KLE1 222117Z 10006KT 08/06 A2988 RMK A01 T00760056  RH  087%=      5-min Rain = 0
KLE1 222118Z 10006KT 08/06 A2988 RMK A01 T00760056  RH  088%=      5-min Rain = 0
KLE1 222119Z 11007KT 08/06 A2988 RMK A01 T00760058  RH  088%=      5-min Rain = 0
KLE1 222120Z 12009KT 08/06 A2988 RMK A01 T00770057  RH  087%=      5-min Rain = 0
KLE1 222121Z 11008KT 08/06 A2988 RMK A01 T00760055  RH  086%=      5-min Rain = 0
KLE1 222122Z 12008KT 08/06 A2988 RMK A01 T00760056  RH  087%=      5-min Rain = 0
KLE1 222123Z 12007KT 08/06 A2988 RMK A01 T00760056  RH  087%=      5-min Rain = 0
KLE1 222124Z 13007KT 08/06 A2988 RMK A01 T00760056  RH  087%=      5-min Rain = 0
KLE1 222125Z 13008KT 08/06 A2988 RMK A01 T00760056  RH  087%=      5-min Rain = 0
KLE1 222126Z 12008KT 08/06 A2988 RMK A01 T00760057  RH  087%=      5-min Rain = 0
KLE1 222127Z 11009KT 08/06 A2988 RMK A01 T00770057  RH  087%=      5-min Rain = 0
KLE1 222128Z 12008KT 08/06 A2988 RMK A01 T00760056  RH  087%=      5-min Rain = 0
KLE1 222129Z 12008KT 08/06 A2988 RMK A01 T00760056  RH  087%=      5-min Rain = 0
KLE1 222130Z 12007KT 08/06 A2988 RMK A01 T00750056  RH  087%=      5-min Rain = 0
KLE1 222131Z 11009KT 08/06 A2988 RMK A01 T00750056  RH  088%=      5-min Rain = 0
KLE1 222132Z 10009KT 08/06 A2987 RMK A01 T00760056  RH  088%=      5-min Rain = 0
KLE1 222133Z 11009KT 08/06 A2987 RMK A01 T00760056  RH  087%=      5-min Rain = 0
KLE1 222134Z 11009KT 08/06 A2987 RMK A01 T00760056  RH  087%=      5-min Rain = 0
KLE1 222135Z 11010KT 08/06 A2987 RMK A01 T00760056  RH  087%=      5-min Rain = 0
KLE1 222136Z 10010KT 08/06 A2987 RMK A01 T00760056  RH  087%=      5-min Rain = 0
KLE1 222137Z 10010KT 08/06 A2987 RMK A01 T00750056  RH  088%=      5-min Rain = 0
KLE1 222138Z 11011KT 08/06 A2987 RMK A01 T00750056  RH  088%=      5-min Rain = 0
KLE1 222139Z 12011KT 08/06 A2987 RMK A01 T00750056  RH  088%=      5-min Rain = 0
KLE1 222140Z 12011KT 08/06 A2987 RMK A01 T00750056  RH  088%=      5-min Rain = 0
KLE1 222141Z 11012KT 08/06 A2987 RMK A01 T00750056  RH  088%=      5-min Rain = 0
KLE1 222142Z 11009KT 08/06 A2987 RMK A01 T00750056  RH  088%=      5-min Rain = 0
KLE1 222143Z 12009KT 08/06 A2987 RMK A01 T00750057  RH  088%=      5-min Rain = 0
KLE1 222144Z 12009KT 08/06 A2987 RMK A01 T00750056  RH  088%=      5-min Rain = 0
KLE1 222145Z 12009KT 07/06 A2987 RMK A01 T00740056  RH  088%=      5-min Rain = 0
KLE1 222146Z 11011KT 07/06 A2987 RMK A01 T00740056  RH  088%=      5-min Rain = 0
KLE1 222147Z 10010KT 07/06 A2987 RMK A01 T00740056  RH  088%=      5-min Rain = 0
KLE1 222148Z 10011KT 07/06 A2987 RMK A01 T00740056  RH  089%=      5-min Rain = 0
KLE1 222149Z 10010KT 07/06 A2987 RMK A01 T00730056  RH  089%=      5-min Rain = 0
KLE1 222150Z 11009KT 07/06 A2987 RMK A01 T00730056  RH  089%=      5-min Rain = 0
KLE1 222151Z 11012KT 07/06 A2987 RMK A01 T00730056  RH  089%=      5-min Rain = 0
KLE1 222152Z 12010KT 07/06 A2987 RMK A01 T00730056  RH  089%=      5-min Rain = 0
KLE1 222153Z 12009KT 07/06 A2987 RMK A01 T00730057  RH  089%=      5-min Rain = 0
KLE1 222154Z 12009KT 07/06 A2987 RMK A01 T00740057  RH  089%=      5-min Rain = 0
KLE1 222155Z 12010KT 07/06 A2987 RMK A01 T00730056  RH  089%=      5-min Rain = 0
KLE1 222156Z 12009KT 07/06 A2987 RMK A01 T00730057  RH  089%=      5-min Rain = 0
KLE1 222157Z 11009KT 07/06 A2987 RMK A01 T00740057  RH  089%=      5-min Rain = 0
KLE1 222158Z 10008KT 07/06 A2987 RMK A01 T00740057  RH  089%=      5-min Rain = 0
KLE1 222159Z 11010KT 07/06 A2987 RMK A01 T00740058  RH  089%=      5-min Rain = 0
KLE1 222200Z 10009KT 07/06 A2987 RMK A01 T00740057  RH  089%=      5-min Rain = 0
KLE1 222201Z 10009KT 07/06 A2987 RMK A01 T00740057  RH  089%=      5-min Rain = 0
KLE1 222202Z 10009KT 07/06 A2987 RMK A01 T00740057  RH  089%=      5-min Rain = 0
KLE1 222203Z 10010KT 07/06 A2987 RMK A01 T00740058  RH  090%=      5-min Rain = 0
KLE1 222204Z 11010KT 07/06 A2987 RMK A01 T00740058  RH  089%=      5-min Rain = 0
KLE1 222205Z 10010KT 07/06 A2987 RMK A01 T00740057  RH  089%=      5-min Rain = 0
KLE1 222206Z 10009KT 07/06 A2987 RMK A01 T00730057  RH  090%=      5-min Rain = 0
KLE1 222207Z 10010KT 07/06 A2987 RMK A01 T00730058  RH  090%=      5-min Rain = 0
KLE1 222208Z 12010KT 07/06 A2987 RMK A01 T00730058  RH  090%=      5-min Rain = 0
KLE1 222209Z 12011KT 07/06 A2987 RMK A01 T00730057  RH  090%=      5-min Rain = 0
KLE1 222210Z 11011KT 07/06 A2987 RMK A01 T00730058  RH  090%=      5-min Rain = 0
KLE1 222211Z 11011KT 07/06 A2987 RMK A01 T00730058  RH  090%=      5-min Rain = 0
KLE1 222212Z 11011KT 07/06 A2987 RMK A01 T00730058  RH  090%=      5-min Rain = 0
KLE1 222213Z 11011KT 07/06 A2987 RMK A01 T00730058  RH  090%=      5-min Rain = 0
KLE1 222214Z 11010KT 07/06 A2987 RMK A01 T00730058  RH  090%=      5-min Rain = 0
KLE1 222215Z 12010KT 07/06 A2987 RMK A01 T00720057  RH  090%=      5-min Rain = 0
KLE1 222216Z 12010KT 07/06 A2987 RMK A01 T00720057  RH  090%=      5-min Rain = 0
KLE1 222217Z 11010KT 07/06 A2987 RMK A01 T00720058  RH  091%=      5-min Rain = 0
KLE1 222218Z 10011KT 07/06 A2987 RMK A01 T00720058  RH  091%=      5-min Rain = 0
KLE1 222219Z 11012KT 07/06 A2987 RMK A01 T00720058  RH  091%=      5-min Rain = 0
KLE1 222220Z 11012KT 07/06 A2987 RMK A01 T00720058  RH  091%=      5-min Rain = 0
KLE1 222221Z 12011KT 07/06 A2987 RMK A01 T00720057  RH  091%=      5-min Rain = 0
KLE1 222222Z 12011KT 07/06 A2987 RMK A01 T00720058  RH  091%=      5-min Rain = 0
KLE1 222223Z 12011KT 07/06 A2987 RMK A01 T00710058  RH  091%=      5-min Rain = 0
KLE1 222224Z 12010KT 07/06 A2987 RMK A01 T00710057  RH  091%=      5-min Rain = 0
KLE1 222225Z 12012KT 07/06 A2987 RMK A01 T00710057  RH  091%=      5-min Rain = 0
KLE1 222226Z 12010KT 07/06 A2987 RMK A01 T00700057  RH  091%=      5-min Rain = 0
KLE1 222227Z 11010KT 07/06 A2987 RMK A01 T00700057  RH  091%=      5-min Rain = 0
KLE1 222228Z 10010KT 07/06 A2987 RMK A01 T00700058  RH  092%=      5-min Rain = 0
KLE1 222229Z 09012KT 07/06 A2987 RMK A01 T00700058  RH  092%=      5-min Rain = 0
KLE1 222230Z 10012KT 07/06 A2987 RMK A01 T00700058  RH  092%=      5-min Rain = 0
KLE1 222231Z 10013KT 07/06 A2987 RMK A01 T00690058  RH  093%=      5-min Rain = 0
KLE1 222232Z 11012KT 07/06 A2986 RMK A01 T00690058  RH  093%=      5-min Rain = 0
KLE1 222233Z 12012KT 07/06 A2986 RMK A01 T00680059  RH  094%=      5-min Rain = 0
KLE1 222234Z 11010KT 07/06 A2986 RMK A01 T00690059  RH  094%=      5-min Rain = 0
KLE1 222235Z 11011KT 07/06 A2986 RMK A01 T00680059  RH  094%=      5-min Rain = 0
KLE1 222236Z 11011KT 07/06 A2986 RMK A01 T00680059  RH  094%=      5-min Rain = 0
KLE1 222237Z 10011KT 07/06 A2986 RMK A01 T00680060  RH  094%=      5-min Rain = 0
KLE1 222238Z 11011KT 07/06 A2986 RMK A01 T00680060  RH  094%=      5-min Rain = 0
KLE1 222239Z 11011KT 07/06 A2986 RMK A01 T00680060  RH  095%=      5-min Rain = 0
KLE1 222240Z 11011KT 07/06 A2986 RMK A01 T00680060  RH  095%=      5-min Rain = 0
KLE1 222241Z 10010KT 07/06 A2986 RMK A01 T00670060  RH  095%=      5-min Rain = 0
KLE1 222242Z 10011KT 07/06 A2986 RMK A01 T00670060  RH  095%=      5-min Rain = 0
KLE1 222243Z 10012KT 07/06 A2986 RMK A01 T00660059  RH  095%=      5-min Rain = 0
KLE1 222244Z 09011KT 07/06 A2986 RMK A01 T00660059  RH  095%=      5-min Rain = 0
KLE1 222245Z 10012KT 07/06 A2986 RMK A01 T00650059  RH  096%=      5-min Rain = 0
KLE1 222246Z 11012KT 07/06 A2986 RMK A01 T00660059  RH  096%=      5-min Rain = 0
KLE1 222247Z 10012KT 07/06 A2986 RMK A01 T00660059  RH  096%=      5-min Rain = 0
KLE1 222248Z 10011KT 07/06 A2986 RMK A01 T00660060  RH  096%=      5-min Rain = 0
KLE1 222249Z 11010KT 07/06 A2986 RMK A01 T00650060  RH  096%=      5-min Rain = 0
KLE1 222250Z 11011KT 07/06 A2986 RMK A01 T00650060  RH  096%=      5-min Rain = 0
KLE1 222251Z 11011KT 07/06 A2987 RMK A01 T00650060  RH  096%=      5-min Rain = 0
KLE1 222252Z 11012KT 07/06 A2986 RMK A01 T00650060  RH  096%=      5-min Rain = 0
KLE1 222253Z 11010KT 07/06 A2986 RMK A01 T00650059  RH  096%=      5-min Rain = 0
KLE1 222254Z 11010KT 07/06 A2986 RMK A01 T00650059  RH  096%=      5-min Rain = 0
KLE1 222255Z 11012KT 07/06 A2986 RMK A01 T00650060  RH  097%=      5-min Rain = 0
KLE1 222256Z 10012KT 07/06 A2986 RMK A01 T00650060  RH  097%=      5-min Rain = 0
KLE1 222257Z 11011KT 07/06 A2986 RMK A01 T00650060  RH  097%=      5-min Rain = 0
KLE1 222258Z 11010KT 07/06 A2986 RMK A01 T00650060  RH  097%=      5-min Rain = 0
KLE1 222259Z 11011KT 07/06 A2986 RMK A01 T00650060  RH  097%=      5-min Rain = 0
KLE1 222300Z 11010KT 07/06 A2986 RMK A01 T00650060  RH  097%=      5-min Rain = 0
KLE1 222301Z 10011KT 07/06 A2986 RMK A01 T00650060  RH  097%=      5-min Rain = 0
KLE1 222302Z 10012KT 07/06 A2986 RMK A01 T00650060  RH  097%=      5-min Rain = 0
KLE1 222303Z 10011KT 07/06 A2986 RMK A01 T00650060  RH  097%=      5-min Rain = 0
KLE1 222304Z 11010KT 07/06 A2986 RMK A01 T00650060  RH  097%=      5-min Rain = 0
KLE1 222305Z 11012KT 07/06 A2986 RMK A01 T00650060  RH  097%=      5-min Rain = 0
KLE1 222306Z 11011KT 07/06 A2986 RMK A01 T00650060  RH  097%=      5-min Rain = 0
KLE1 222307Z 11010KT 07/06 A2986 RMK A01 T00650060  RH  097%=      5-min Rain = 0
KLE1 222308Z 12011KT 07/06 A2986 RMK A01 T00650060  RH  097%=      5-min Rain = 0
KLE1 222309Z 11011KT 07/06 A2986 RMK A01 T00650060  RH  097%=      5-min Rain = 0
KLE1 222310Z 12010KT 07/06 A2986 RMK A01 T00650060  RH  097%=      5-min Rain = 0
KLE1 222311Z 12010KT 07/06 A2986 RMK A01 T00650060  RH  097%=      5-min Rain = 0
KLE1 222312Z 11011KT 07/06 A2986 RMK A01 T00650060  RH  097%=      5-min Rain = 0
KLE1 222313Z 11012KT 07/06 A2986 RMK A01 T00650060  RH  097%=      5-min Rain = 0
KLE1 222314Z 11012KT 07/06 A2986 RMK A01 T00650060  RH  097%=      5-min Rain = 0
KLE1 222315Z 11012KT 07/06 A2986 RMK A01 T00650060  RH  097%=      5-min Rain = 0
KLE1 222316Z 11012KT 07/06 A2986 RMK A01 T00650061  RH  097%=      5-min Rain = 0
KLE1 222317Z 11011KT 07/06 A2986 RMK A01 T00650060  RH  097%=      5-min Rain = 0
KLE1 222318Z 11011KT 07/06 A2986 RMK A01 T00650061  RH  097%=      5-min Rain = 0
KLE1 222319Z 10012KT 07/06 A2986 RMK A01 T00650061  RH  097%=      5-min Rain = 0
KLE1 222320Z 10012KT 06/06 A2985 RMK A01 T00640060  RH  097%=      5-min Rain = 0
KLE1 222321Z 11011KT 06/06 A2985 RMK A01 T00640060  RH  097%=      5-min Rain = 0
KLE1 222322Z 11012KT 06/06 A2985 RMK A01 T00640060  RH  097%=      5-min Rain = 0
KLE1 222323Z 11012KT 06/06 A2985 RMK A01 T00640060  RH  097%=      5-min Rain = 0
KLE1 222324Z 11012KT 06/06 A2985 RMK A01 T00640060  RH  097%=      5-min Rain = 0
KLE1 222325Z 11011KT 06/06 A2985 RMK A01 T00640060  RH  097%=      5-min Rain = 0
KLE1 222326Z 11012KT 06/06 A2985 RMK A01 T00640060  RH  097%=      5-min Rain = 0
KLE1 222327Z 12012KT 06/06 A2985 RMK A01 T00630060  RH  098%=      5-min Rain = 0
KLE1 222328Z 12010KT 06/06 A2985 RMK A01 T00630060  RH  098%=      5-min Rain = 0
KLE1 222329Z 11011KT 06/06 A2985 RMK A01 T00630060  RH  098%=      5-min Rain = 0
KLE1 222330Z 11010KT 06/06 A2985 RMK A01 T00630060  RH  098%=      5-min Rain = 0
KLE1 222331Z 11011KT 06/06 A2985 RMK A01 T00630060  RH  098%=      5-min Rain = 0
KLE1 222332Z 11011KT 06/06 A2985 RMK A01 T00630060  RH  098%=      5-min Rain = 0
KLE1 222333Z 11010KT 06/06 A2985 RMK A01 T00630060  RH  098%=      5-min Rain = 0
KLE1 222334Z 11011KT 06/06 A2985 RMK A01 T00630060  RH  098%=      5-min Rain = 0
KLE1 222335Z 11012KT 06/06 A2985 RMK A01 T00640060  RH  098%=      5-min Rain = 0
KLE1 222336Z 11012KT 06/06 A2985 RMK A01 T00630060  RH  098%=      5-min Rain = 0
KLE1 222337Z 11012KT 06/06 A2985 RMK A01 T00630060  RH  098%=      5-min Rain = 0
KLE1 222338Z 11012KT 06/06 A2985 RMK A01 T00620059  RH  098%=      5-min Rain = 0
KLE1 222339Z 11011KT 06/06 A2985 RMK A01 T00630060  RH  098%=      5-min Rain = 0
KLE1 222340Z 11010KT 06/06 A2985 RMK A01 T00620060  RH  098%=      5-min Rain = 0
KLE1 222341Z 11012KT 06/06 A2985 RMK A01 T00630060  RH  098%=      5-min Rain = 0
KLE1 222342Z 10011KT 06/06 A2985 RMK A01 T00620060  RH  098%=      5-min Rain = 0
KLE1 222343Z 11013KT 06/06 A2985 RMK A01 T00620060  RH  098%=      5-min Rain = 0
KLE1 222344Z 11013KT 06/06 A2985 RMK A01 T00620060  RH  098%=      5-min Rain = 0
KLE1 222345Z 10011KT 06/06 A2985 RMK A01 T00620060  RH  098%=      5-min Rain = 0
KLE1 222346Z 10011KT 06/06 A2985 RMK A01 T00620060  RH  098%=      5-min Rain = 0
KLE1 222347Z 11011KT 06/06 A2985 RMK A01 T00620060  RH  098%=      5-min Rain = 0
KLE1 222348Z 11012KT 06/06 A2985 RMK A01 T00620060  RH  098%=      5-min Rain = 0
KLE1 222349Z 11013KT 06/06 A2985 RMK A01 T00630060  RH  098%=      5-min Rain = 0
KLE1 222350Z 11012KT 06/06 A2985 RMK A01 T00620060  RH  098%=      5-min Rain = 0
KLE1 222351Z 11012KT 06/06 A2985 RMK A01 T00630060  RH  098%=      5-min Rain = 0
KLE1 222352Z 11011KT 06/06 A2985 RMK A01 T00630060  RH  098%=      5-min Rain = 0
KLE1 222353Z 11010KT 06/06 A2985 RMK A01 T00620060  RH  098%=      5-min Rain = 0
KLE1 222354Z 11010KT 06/06 A2985 RMK A01 T00620060  RH  099%=      5-min Rain = 0
KLE1 222355Z 11010KT 06/06 A2985 RMK A01 T00620060  RH  099%=      5-min Rain = 0
KLE1 222356Z 10011KT 06/06 A2985 RMK A01 T00620060  RH  099%=      5-min Rain = 0
KLE1 222357Z 10011KT 06/06 A2985 RMK A01 T00620060  RH  099%=      5-min Rain = 0
KLE1 222358Z 11012KT 06/06 A2985 RMK A01 T00620060  RH  099%=      5-min Rain = 0
KLE1 222359Z 10010KT 06/06 A2985 RMK A01 T00620060  RH  099%=      5-min Rain = 0
KLE1 230000Z 11010KT 06/06 A2985 RMK A01 T00620060  RH  099%=      5-min Rain = 0
KLE1 230001Z 11010KT 06/06 A2985 RMK A01 T00620060  RH  099%=      5-min Rain = 0
KLE1 230002Z 11011KT 06/06 A2985 RMK A01 T00620060  RH  099%=      5-min Rain = 0
KLE1 230003Z 11010KT 06/06 A2985 RMK A01 T00620060  RH  099%=      5-min Rain = 0
KLE1 230004Z 11009KT 06/06 A2985 RMK A01 T00620060  RH  099%=      5-min Rain = 0
KLE1 230005Z 10010KT 06/06 A2985 RMK A01 T00620060  RH  099%=      5-min Rain = 0
KLE1 230006Z 10009KT 06/06 A2985 RMK A01 T00620060  RH  099%=      5-min Rain = 0
KLE1 230007Z 11010KT 06/06 A2985 RMK A01 T00620060  RH  099%=      5-min Rain = 0
KLE1 230008Z 10010KT 06/06 A2985 RMK A01 T00620060  RH  099%=      5-min Rain = 0
KLE1 230009Z 10009KT 06/06 A2985 RMK A01 T00620060  RH  099%=      5-min Rain = 0
KLE1 230010Z 11009KT 06/06 A2985 RMK A01 T00620060  RH  099%=      5-min Rain = 0
KLE1 230011Z 11010KT 06/06 A2985 RMK A01 T00620060  RH  099%=      5-min Rain = 0
KLE1 230012Z 11009KT 06/06 A2985 RMK A01 T00630061  RH  099%=      5-min Rain = 0
KLE1 230013Z 10010KT 06/06 A2985 RMK A01 T00620061  RH  099%=      5-min Rain = 0
KLE1 230014Z 11010KT 06/06 A2985 RMK A01 T00620061  RH  099%=      5-min Rain = 0
KLE1 230015Z 11010KT 06/06 A2985 RMK A01 T00630061  RH  099%=      5-min Rain = 0
KLE1 230016Z 11009KT 06/06 A2985 RMK A01 T00620060  RH  099%=      5-min Rain = 0
KLE1 230017Z 11010KT 06/06 A2985 RMK A01 T00620061  RH  099%=      5-min Rain = 0
KLE1 230018Z 11011KT 06/06 A2985 RMK A01 T00620060  RH  099%=      5-min Rain = 0
KLE1 230019Z 12011KT 06/06 A2985 RMK A01 T00620060  RH  099%=      5-min Rain = 0
KLE1 230020Z 11012KT 06/06 A2985 RMK A01 T00620060  RH  099%=      5-min Rain = 0
KLE1 230021Z 12011KT 06/06 A2985 RMK A01 T00620060  RH  099%=      5-min Rain = 0
KLE1 230022Z 12011KT 06/06 A2985 RMK A01 T00630061  RH  099%=      5-min Rain = 0
KLE1 230023Z 11011KT 06/06 A2985 RMK A01 T00620061  RH  099%=      5-min Rain = 0
KLE1 230024Z 11010KT 06/06 A2985 RMK A01 T00630061  RH  099%=      5-min Rain = 0
KLE1 230025Z 12010KT 06/06 A2985 RMK A01 T00620060  RH  099%=      5-min Rain = 0
KLE1 230026Z 12013KT 06/06 A2985 RMK A01 T00630061  RH  099%=      5-min Rain = 0
KLE1 230027Z 11012KT 06/06 A2985 RMK A01 T00630061  RH  099%=      5-min Rain = 0
KLE1 230028Z 12011KT 06/06 A2985 RMK A01 T00620060  RH  099%=      5-min Rain = 0
KLE1 230029Z 11010KT 06/06 A2985 RMK A01 T00620061  RH  099%=      5-min Rain = 0
KLE1 230030Z 11011KT 06/06 A2985 RMK A01 T00620060  RH  099%=      5-min Rain = 0
KLE1 230031Z 11012KT 06/06 A2985 RMK A01 T00620061  RH  099%=      5-min Rain = 0
KLE1 230032Z 11010KT 06/06 A2985 RMK A01 T00620060  RH  099%=      5-min Rain = 0
KLE1 230033Z 11010KT 06/06 A2985 RMK A01 T00620060  RH  099%=      5-min Rain = 0
KLE1 230034Z 11011KT 06/06 A2985 RMK A01 T00630061  RH  099%=      5-min Rain = 0
KLE1 230035Z 11011KT 06/06 A2985 RMK A01 T00620060  RH  099%=      5-min Rain = 0
KLE1 230036Z 11011KT 06/06 A2985 RMK A01 T00620060  RH  099%=      5-min Rain = 0
KLE1 230037Z 12010KT 06/06 A2986 RMK A01 T00630061  RH  099%=      5-min Rain = 0
KLE1 230038Z 11009KT 06/06 A2986 RMK A01 T00620061  RH  099%=      5-min Rain = 0
KLE1 230039Z 12008KT 06/06 A2986 RMK A01 T00630061  RH  099%=      5-min Rain = 0
KLE1 230040Z 11007KT 06/06 A2986 RMK A01 T00620061  RH  099%=      5-min Rain = 0
KLE1 230041Z 11009KT 06/06 A2986 RMK A01 T00620061  RH  099%=      5-min Rain = 0
KLE1 230042Z 11009KT 06/06 A2986 RMK A01 T00630061  RH  099%=      5-min Rain = 0
KLE1 230043Z 11009KT 06/06 A2986 RMK A01 T00620061  RH  099%=      5-min Rain = 0
KLE1 230044Z 12009KT 06/06 A2986 RMK A01 T00630061  RH  099%=      5-min Rain = 0
KLE1 230045Z 11009KT 06/06 A2986 RMK A01 T00620061  RH  099%=      5-min Rain = 0
KLE1 230046Z 11008KT 06/06 A2986 RMK A01 T00620061  RH  099%=      5-min Rain = 0
KLE1 230047Z 11008KT 06/06 A2986 RMK A01 T00620061  RH  099%=      5-min Rain = 0
KLE1 230048Z 11008KT 06/06 A2986 RMK A01 T00620061  RH  099%=      5-min Rain = 0
KLE1 230049Z 11008KT 06/06 A2986 RMK A01 T00630061  RH  099%=      5-min Rain = 0
KLE1 230050Z 11007KT 06/06 A2986 RMK A01 T00620061  RH  099%=      5-min Rain = 0
KLE1 230051Z 11008KT 06/06 A2986 RMK A01 T00620061  RH  099%=      5-min Rain = 0
KLE1 230052Z 11009KT 06/06 A2986 RMK A01 T00620061  RH  099%=      5-min Rain = 0
KLE1 230053Z 11008KT 06/06 A2986 RMK A01 T00620061  RH  099%=      5-min Rain = 0
KLE1 230054Z 11008KT 06/06 A2986 RMK A01 T00630061  RH  099%=      5-min Rain = 0
KLE1 230055Z 12007KT 06/06 A2986 RMK A01 T00620061  RH  099%=      5-min Rain = 0
KLE1 230056Z 12008KT 06/06 A2986 RMK A01 T00630061  RH  099%=      5-min Rain = 0
KLE1 230057Z 11008KT 06/06 A2986 RMK A01 T00630061  RH  099%=      5-min Rain = 0
KLE1 230058Z 11009KT 06/06 A2986 RMK A01 T00620061  RH  099%=      5-min Rain = 0
KLE1 230059Z 11009KT 06/06 A2986 RMK A01 T00620061  RH  099%=      5-min Rain = 0
KLE1 230100Z 11009KT 06/06 A2986 RMK A01 T00630061  RH  099%=      5-min Rain = 0
KLE1 230101Z 11008KT 06/06 A2986 RMK A01 T00630061  RH  099%=      5-min Rain = 0
KLE1 230102Z 11009KT 06/06 A2986 RMK A01 T00630061  RH  099%=      5-min Rain = 0
KLE1 230103Z 11010KT 06/06 A2986 RMK A01 T00620061  RH  099%=      5-min Rain = 0
KLE1 230104Z 11009KT 06/06 A2986 RMK A01 T00620061  RH  099%=      5-min Rain = 0
KLE1 230105Z 11010KT 06/06 A2986 RMK A01 T00620061  RH  099%=      5-min Rain = 0
KLE1 230106Z 11010KT 06/06 A2985 RMK A01 T00620061  RH  099%=      5-min Rain = 0
KLE1 230107Z 12010KT 06/06 A2985 RMK A01 T00620061  RH  099%=      5-min Rain = 0
KLE1 230108Z 11009KT 06/06 A2985 RMK A01 T00630061  RH  099%=      5-min Rain = 0
KLE1 230109Z 12009KT 06/06 A2985 RMK A01 T00620061  RH  099%=      5-min Rain = 0
KLE1 230110Z 11009KT 06/06 A2985 RMK A01 T00620061  RH  099%=      5-min Rain = 0
KLE1 230111Z 11010KT 06/06 A2986 RMK A01 T00630061  RH  099%=      5-min Rain = 0
KLE1 230112Z 11008KT 06/06 A2986 RMK A01 T00630061  RH  099%=      5-min Rain = 0
KLE1 230113Z 11009KT 06/06 A2986 RMK A01 T00620061  RH  099%=      5-min Rain = 0
KLE1 230114Z 11010KT 06/06 A2986 RMK A01 T00620061  RH  099%=      5-min Rain = 0
KLE1 230115Z 11009KT 06/06 A2986 RMK A01 T00630061  RH  099%=      5-min Rain = 0
KLE1 230116Z 11009KT 06/06 A2986 RMK A01 T00630062  RH  099%=      5-min Rain = 0
KLE1 230117Z 11009KT 06/06 A2986 RMK A01 T00630062  RH  099%=      5-min Rain = 0
KLE1 230118Z 12010KT 06/06 A2986 RMK A01 T00620061  RH  099%=      5-min Rain = 0
KLE1 230119Z 12009KT 06/06 A2986 RMK A01 T00620061  RH  099%=      5-min Rain = 0
KLE1 230120Z 12009KT 06/06 A2986 RMK A01 T00620061  RH  099%=      5-min Rain = 0
KLE1 230121Z 11010KT 06/06 A2986 RMK A01 T00620061  RH  099%=      5-min Rain = 0
KLE1 230122Z 11010KT 06/06 A2986 RMK A01 T00620061  RH  099%=      5-min Rain = 0
KLE1 230123Z 11010KT 06/06 A2986 RMK A01 T00620061  RH  099%=      5-min Rain = 0
KLE1 230124Z 11009KT 06/06 A2986 RMK A01 T00620061  RH  099%=      5-min Rain = 0
KLE1 230125Z 11009KT 06/06 A2986 RMK A01 T00620061  RH  099%=      5-min Rain = 0
KLE1 230126Z 11009KT 06/06 A2986 RMK A01 T00620061  RH  099%=      5-min Rain = 0
KLE1 230127Z 11009KT 06/06 A2986 RMK A01 T00620061  RH  099%=      5-min Rain = 0
KLE1 230128Z 11007KT 06/06 A2986 RMK A01 T00630062  RH  099%=      5-min Rain = 0
KLE1 230129Z 12007KT 06/06 A2986 RMK A01 T00630062  RH  099%=      5-min Rain = 0
KLE1 230130Z 12007KT 06/06 A2986 RMK A01 T00630062  RH  099%=      5-min Rain = 0
KLE1 230131Z 12006KT 06/06 A2986 RMK A01 T00630062  RH  099%=      5-min Rain = 0
KLE1 230132Z 12006KT 06/06 A2986 RMK A01 T00620061  RH  099%=      5-min Rain = 0
KLE1 230133Z 12005KT 06/06 A2987 RMK A01 T00620061  RH  099%=      5-min Rain = 0
KLE1 230134Z 12006KT 06/06 A2987 RMK A01 T00630062  RH  099%=      5-min Rain = 0
KLE1 230135Z 13005KT 06/06 A2987 RMK A01 T00630062  RH  099%=      5-min Rain = 0
KLE1 230136Z 13007KT 06/06 A2987 RMK A01 T00630062  RH  099%=      5-min Rain = 0
KLE1 230137Z 12006KT 06/06 A2987 RMK A01 T00630062  RH  099%=      5-min Rain = 0
KLE1 230138Z 11007KT 06/06 A2987 RMK A01 T00620061  RH  099%=      5-min Rain = 0
KLE1 230139Z 11007KT 06/06 A2987 RMK A01 T00620062  RH  099%=      5-min Rain = 0
KLE1 230140Z 11008KT 06/06 A2987 RMK A01 T00620062  RH  099%=      5-min Rain = 0
KLE1 230141Z 11008KT 06/06 A2986 RMK A01 T00620062  RH  099%=      5-min Rain = 0
KLE1 230142Z 11008KT 06/06 A2986 RMK A01 T00630062  RH  099%=      5-min Rain = 0
KLE1 230143Z 12008KT 06/06 A2986 RMK A01 T00620062  RH  099%=      5-min Rain = 0
KLE1 230144Z 12008KT 06/06 A2986 RMK A01 T00620062  RH  099%=      5-min Rain = 0
KLE1 230145Z 12006KT 06/06 A2986 RMK A01 T00630062  RH  099%=      5-min Rain = 0
KLE1 230146Z 12007KT 06/06 A2987 RMK A01 T00620062  RH  099%=      5-min Rain = 0
KLE1 230147Z 11006KT 06/06 A2987 RMK A01 T00620062  RH  099%=      5-min Rain = 0
KLE1 230148Z 12006KT 06/06 A2987 RMK A01 T00620062  RH  099%=      5-min Rain = 0
KLE1 230149Z 11006KT 06/06 A2987 RMK A01 T00620062  RH  099%=      5-min Rain = 0
KLE1 230150Z 11007KT 06/06 A2986 RMK A01 T00630062  RH  099%=      5-min Rain = 0
KLE1 230151Z 11007KT 06/06 A2986 RMK A01 T00620062  RH  099%=      5-min Rain = 0
KLE1 230152Z 10007KT 06/06 A2986 RMK A01 T00620062  RH  099%=      5-min Rain = 0
KLE1 230153Z 10007KT 06/06 A2986 RMK A01 T00630062  RH  100%=      5-min Rain = 0
KLE1 230154Z 10007KT 06/06 A2986 RMK A01 T00620062  RH  099%=      5-min Rain = 0
KLE1 230155Z 09007KT 06/06 A2986 RMK A01 T00630062  RH  100%=      5-min Rain = 0
KLE1 230156Z 09007KT 06/06 A2986 RMK A01 T00620062  RH  100%=      5-min Rain = 0
KLE1 230157Z 08007KT 06/06 A2985 RMK A01 T00620062  RH  100%=      5-min Rain = 0
KLE1 230158Z 08007KT 06/06 A2985 RMK A01 T00630062  RH  100%=      5-min Rain = 0
KLE1 230159Z 08008KT 06/06 A2985 RMK A01 T00630062  RH  100%=      5-min Rain = 0
KLE1 230200Z 09008KT 06/06 A2985 RMK A01 T00630062  RH  100%=      5-min Rain = 0
KLE1 230201Z 09008KT 06/06 A2985 RMK A01 T00630062  RH  100%=      5-min Rain = 0
KLE1 230202Z 08007KT 06/06 A2985 RMK A01 T00620062  RH  100%=      5-min Rain = 0
KLE1 230203Z 09008KT 06/06 A2985 RMK A01 T00620062  RH  100%=      5-min Rain = 0
KLE1 230204Z 08008KT 06/06 A2985 RMK A01 T00620062  RH  100%=      5-min Rain = 0
KLE1 230205Z 08008KT 06/06 A2985 RMK A01 T00630062  RH  100%=      5-min Rain = 0
KLE1 230206Z 09008KT 06/06 A2985 RMK A01 T00620062  RH  100%=      5-min Rain = 0
KLE1 230207Z 09008KT 06/06 A2985 RMK A01 T00630062  RH  100%=      5-min Rain = 0
KLE1 230208Z 08007KT 06/06 A2985 RMK A01 T00620062  RH  100%=      5-min Rain = 0
KLE1 230209Z 09007KT 06/06 A2985 RMK A01 T00620062  RH  100%=      5-min Rain = 0
KLE1 230210Z 09007KT 06/06 A2985 RMK A01 T00620062  RH  100%=      5-min Rain = 0
KLE1 230211Z 09008KT 06/06 A2985 RMK A01 T00630062  RH  100%=      5-min Rain = 0
KLE1 230212Z 09009KT 06/06 A2985 RMK A01 T00620062  RH  100%=      5-min Rain = 0
KLE1 230213Z 09009KT 06/06 A2985 RMK A01 T00630062  RH  100%=      5-min Rain = 0
KLE1 230214Z 09007KT 06/06 A2985 RMK A01 T00620062  RH  100%=      5-min Rain = 0
KLE1 230215Z 10009KT 06/06 A2985 RMK A01 T00630062  RH  100%=      5-min Rain = 0
KLE1 230216Z 09008KT 06/06 A2985 RMK A01 T00620062  RH  100%=      5-min Rain = 0
KLE1 230217Z 09009KT 06/06 A2985 RMK A01 T00620062  RH  100%=      5-min Rain = 0
KLE1 230218Z 09009KT 06/06 A2984 RMK A01 T00620062  RH  100%=      5-min Rain = 0
KLE1 230219Z 09008KT 06/06 A2984 RMK A01 T00620062  RH  100%=      5-min Rain = 0
KLE1 230220Z 09009KT 06/06 A2984 RMK A01 T00620062  RH  100%=      5-min Rain = 0
KLE1 230221Z 09008KT 06/06 A2984 RMK A01 T00620062  RH  100%=      5-min Rain = 0
KLE1 230222Z 09009KT 06/06 A2984 RMK A01 T00630062  RH  100%=      5-min Rain = 0
KLE1 230223Z 09011KT 06/06 A2984 RMK A01 T00620062  RH  100%=      5-min Rain = 0
KLE1 230224Z 09010KT 06/06 A2983 RMK A01 T00630062  RH  100%=      5-min Rain = 0
KLE1 230225Z 10009KT 06/06 A2983 RMK A01 T00630062  RH  100%=      5-min Rain = 0
KLE1 230226Z 09010KT 06/06 A2983 RMK A01 T00620062  RH  100%=      5-min Rain = 0
KLE1 230227Z 10009KT 06/06 A2983 RMK A01 T00620062  RH  100%=      5-min Rain = 0
KLE1 230228Z 09010KT 06/06 A2983 RMK A01 T00620062  RH  100%=      5-min Rain = 0
KLE1 230229Z 09009KT 06/06 A2983 RMK A01 T00630062  RH  100%=      5-min Rain = 0
KLE1 230230Z 10010KT 06/06 A2983 RMK A01 T00620062  RH  100%=      5-min Rain = 0
KLE1 230231Z 09009KT 06/06 A2983 RMK A01 T00620062  RH  100%=      5-min Rain = 0
KLE1 230232Z 09011KT 06/06 A2983 RMK A01 T00630062  RH  100%=      5-min Rain = 0
KLE1 230233Z 09009KT 06/06 A2983 RMK A01 T00620062  RH  100%=      5-min Rain = 0
KLE1 230234Z 09008KT 06/06 A2983 RMK A01 T00630062  RH  100%=      5-min Rain = 0
KLE1 230235Z 09009KT 06/06 A2983 RMK A01 T00620062  RH  100%=      5-min Rain = 0
KLE1 230236Z 10009KT 06/06 A2983 RMK A01 T00620062  RH  100%=      5-min Rain = 0
KLE1 230237Z 10009KT 06/06 A2983 RMK A01 T00620062  RH  100%=      5-min Rain = 0
KLE1 230238Z 09008KT 06/06 A2983 RMK A01 T00620062  RH  100%=      5-min Rain = 0
KLE1 230239Z 09007KT 06/06 A2983 RMK A01 T00620062  RH  100%=      5-min Rain = 0
KLE1 230240Z 09009KT 06/06 A2983 RMK A01 T00620062  RH  100%=      5-min Rain = 0
KLE1 230241Z 09009KT 06/06 A2983 RMK A01 T00620062  RH  100%=      5-min Rain = 0
KLE1 230242Z 09010KT 06/06 A2983 RMK A01 T00630062  RH  100%=      5-min Rain = 0
KLE1 230243Z 09011KT 06/06 A2983 RMK A01 T00620062  RH  100%=      5-min Rain = 0
KLE1 230244Z 09010KT 06/06 A2983 RMK A01 T00620062  RH  100%=      5-min Rain = 0
KLE1 230245Z 09008KT 06/06 A2983 RMK A01 T00620062  RH  100%=      5-min Rain = 0
KLE1 230246Z 10010KT 06/06 A2983 RMK A01 T00620062  RH  100%=      5-min Rain = 0
KLE1 230247Z 10010KT 06/06 A2983 RMK A01 T00620062  RH  100%=      5-min Rain = 0
KLE1 230248Z 10009KT 06/06 A2983 RMK A01 T00620062  RH  100%=      5-min Rain = 0
KLE1 230249Z 10008KT 06/06 A2983 RMK A01 T00630062  RH  100%=      5-min Rain = 0
KLE1 230250Z 10007KT 06/06 A2983 RMK A01 T00620062  RH  100%=      5-min Rain = 0
KLE1 230251Z 10010KT 06/06 A2983 RMK A01 T00620062  RH  100%=      5-min Rain = 0
KLE1 230252Z 10008KT 06/06 A2983 RMK A01 T00620062  RH  100%=      5-min Rain = 0
KLE1 230253Z 10007KT 06/06 A2983 RMK A01 T00630062  RH  100%=      5-min Rain = 0
KLE1 230254Z 11009KT 06/06 A2983 RMK A01 T00620062  RH  100%=      5-min Rain = 0
KLE1 230255Z 11010KT 06/06 A2983 RMK A01 T00620062  RH  100%=      5-min Rain = 0
KLE1 230256Z 10010KT 06/06 A2983 RMK A01 T00620062  RH  100%=      5-min Rain = 0
KLE1 230257Z 10010KT 06/06 A2983 RMK A01 T00630062  RH  100%=      5-min Rain = 0
KLE1 230258Z 09010KT 06/06 A2983 RMK A01 T00630062  RH  100%=      5-min Rain = 0
KLE1 230259Z 09009KT 06/06 A2983 RMK A01 T00620062  RH  100%=      5-min Rain = 0
KLE1 230300Z 10010KT 06/06 A2983 RMK A01 T00630062  RH  100%=      5-min Rain = 0
KLE1 230301Z 10009KT 06/06 A2982 RMK A01 T00620062  RH  100%=      5-min Rain = 0
KLE1 230302Z 10010KT 06/06 A2982 RMK A01 T00620062  RH  100%=      5-min Rain = 0
KLE1 230303Z 09010KT 06/06 A2982 RMK A01 T00620062  RH  100%=      5-min Rain = 0
KLE1 230304Z 09009KT 06/06 A2982 RMK A01 T00630062  RH  100%=      5-min Rain = 0
KLE1 230305Z 10008KT 06/06 A2982 RMK A01 T00620062  RH  100%=      5-min Rain = 0
KLE1 230306Z 09009KT 06/06 A2982 RMK A01 T00630062  RH  100%=      5-min Rain = 0
KLE1 230307Z 09011KT 06/06 A2982 RMK A01 T00620062  RH  100%=      5-min Rain = 0
KLE1 230308Z 09010KT 06/06 A2982 RMK A01 T00620062  RH  100%=      5-min Rain = 0
KLE1 230309Z 09009KT 06/06 A2982 RMK A01 T00620062  RH  100%=      5-min Rain = 0
KLE1 230310Z 09010KT 06/06 A2982 RMK A01 T00620062  RH  100%=      5-min Rain = 0
KLE1 230311Z 09010KT 06/06 A2982 RMK A01 T00620062  RH  100%=      5-min Rain = 0
KLE1 230312Z 09009KT 06/06 A2982 RMK A01 T00630062  RH  100%=      5-min Rain = 0
KLE1 230313Z 09009KT 06/06 A2982 RMK A01 T00630062  RH  100%=      5-min Rain = 0
KLE1 230314Z 09010KT 06/06 A2982 RMK A01 T00620062  RH  100%=      5-min Rain = 0
KLE1 230315Z 09011KT 06/06 A2981 RMK A01 T00630062  RH  100%=      5-min Rain = 0
KLE1 230316Z 09010KT 06/06 A2981 RMK A01 T00630062  RH  100%=      5-min Rain = 0
KLE1 230317Z 09010KT 06/06 A2981 RMK A01 T00620062  RH  100%=      5-min Rain = 0
KLE1 230318Z 09011KT 06/06 A2981 RMK A01 T00630062  RH  100%=      5-min Rain = 0
KLE1 230319Z 09011KT 06/06 A2981 RMK A01 T00630062  RH  100%=      5-min Rain = 0
KLE1 230320Z 10010KT 06/06 A2981 RMK A01 T00620062  RH  100%=      5-min Rain = 0
KLE1 230321Z 10011KT 06/06 A2981 RMK A01 T00620062  RH  100%=      5-min Rain = 0
KLE1 230322Z 10010KT 06/06 A2981 RMK A01 T00630062  RH  100%=      5-min Rain = 0
KLE1 230323Z 09010KT 06/06 A2981 RMK A01 T00620062  RH  100%=      5-min Rain = 0
KLE1 230324Z 09009KT 06/06 A2981 RMK A01 T00630062  RH  100%=      5-min Rain = 0
KLE1 230325Z 09009KT 06/06 A2981 RMK A01 T00620062  RH  100%=      5-min Rain = 0
KLE1 230326Z 09010KT 06/06 A2981 RMK A01 T00620062  RH  100%=      5-min Rain = 0
KLE1 230327Z 09011KT 06/06 A2981 RMK A01 T00630062  RH  100%=      5-min Rain = 0
KLE1 230328Z 09010KT 06/06 A2981 RMK A01 T00630062  RH  100%=      5-min Rain = 0
KLE1 230329Z 09011KT 06/06 A2981 RMK A01 T00620062  RH  100%=      5-min Rain = 0
KLE1 230330Z 09010KT 06/06 A2981 RMK A01 T00630062  RH  100%=      5-min Rain = 0
KLE1 230331Z 09010KT 06/06 A2981 RMK A01 T00620062  RH  100%=      5-min Rain = 0
KLE1 230332Z 09013KT 06/06 A2981 RMK A01 T00630062  RH  100%=      5-min Rain = 0
KLE1 230333Z 10010KT 06/06 A2981 RMK A01 T00630062  RH  100%=      5-min Rain = 0
KLE1 230334Z 10011KT 06/06 A2981 RMK A01 T00620062  RH  100%=      5-min Rain = 0
KLE1 230335Z 09011KT 06/06 A2981 RMK A01 T00620062  RH  100%=      5-min Rain = 0
KLE1 230336Z 09013KT 06/06 A2981 RMK A01 T00620062  RH  100%=      5-min Rain = 0
KLE1 230337Z 10012KT 06/06 A2981 RMK A01 T00620062  RH  100%=      5-min Rain = 0
KLE1 230338Z 10012KT 06/06 A2981 RMK A01 T00630062  RH  100%=      5-min Rain = 0
KLE1 230339Z 10013KT 06/06 A2981 RMK A01 T00620062  RH  100%=      5-min Rain = 0
KLE1 230340Z 10012KT 06/06 A2981 RMK A01 T00620062  RH  100%=      5-min Rain = 0
KLE1 230341Z 10013KT 06/06 A2981 RMK A01 T00630062  RH  100%=      5-min Rain = 0
KLE1 230342Z 10012KT 06/06 A2981 RMK A01 T00620062  RH  100%=      5-min Rain = 0
KLE1 230343Z 10012KT 06/06 A2981 RMK A01 T00630062  RH  100%=      5-min Rain = 0
KLE1 230344Z 09012KT 06/06 A2981 RMK A01 T00620062  RH  100%=      5-min Rain = 0
KLE1 230345Z 10010KT 06/06 A2981 RMK A01 T00620062  RH  100%=      5-min Rain = 0
KLE1 230346Z 10010KT 06/06 A2981 RMK A01 T00620062  RH  100%=      5-min Rain = 0
KLE1 230347Z 09010KT 06/06 A2981 RMK A01 T00620062  RH  100%=      5-min Rain = 0
KLE1 230348Z 09012KT 06/06 A2981 RMK A01 T00630062  RH  100%=      5-min Rain = 0
KLE1 230349Z 10012KT 06/06 A2981 RMK A01 T00630063  RH  100%=      5-min Rain = 0
KLE1 230350Z 09011KT 06/06 A2981 RMK A01 T00630062  RH  100%=      5-min Rain = 0
KLE1 230351Z 10010KT 06/06 A2981 RMK A01 T00620062  RH  100%=      5-min Rain = 0
KLE1 230352Z 09009KT 06/06 A2981 RMK A01 T00620062  RH  100%=      5-min Rain = 0
KLE1 230353Z 10010KT 06/06 A2981 RMK A01 T00620062  RH  100%=      5-min Rain = 0
KLE1 230354Z 10009KT 06/06 A2981 RMK A01 T00620062  RH  100%=      5-min Rain = 0
KLE1 230355Z 10011KT 06/06 A2981 RMK A01 T00620062  RH  100%=      5-min Rain = 0
KLE1 230356Z 10009KT 06/06 A2981 RMK A01 T00620062  RH  100%=      5-min Rain = 0
KLE1 230357Z 10010KT 06/06 A2981 RMK A01 T00620062  RH  100%=      5-min Rain = 0
KLE1 230358Z 10011KT 06/06 A2981 RMK A01 T00620062  RH  100%=      5-min Rain = 0
KLE1 230359Z 10012KT 06/06 A2982 RMK A01 T00630062  RH  100%=      5-min Rain = 0
KLE1 230400Z 11011KT 06/06 A2982 RMK A01 T00630062  RH  100%=      5-min Rain = 0
KLE1 230401Z 10011KT 06/06 A2981 RMK A01 T00620062  RH  100%=      5-min Rain = 0
KLE1 230402Z 10010KT 06/06 A2981 RMK A01 T00630062  RH  100%=      5-min Rain = 0
KLE1 230403Z 10011KT 06/06 A2981 RMK A01 T00620062  RH  100%=      5-min Rain = 0
KLE1 230404Z 10010KT 06/06 A2981 RMK A01 T00620062  RH  100%=      5-min Rain = 0
KLE1 230405Z 10012KT 06/06 A2981 RMK A01 T00630062  RH  100%=      5-min Rain = 0
KLE1 230406Z 11012KT 06/06 A2981 RMK A01 T00620062  RH  100%=      5-min Rain = 0
KLE1 230407Z 10014KT 06/06 A2981 RMK A01 T00620062  RH  100%=      5-min Rain = 0
KLE1 230408Z 11013KT 06/06 A2981 RMK A01 T00620062  RH  100%=      5-min Rain = 0
KLE1 230409Z 10012KT 06/06 A2981 RMK A01 T00620062  RH  100%=      5-min Rain = 0
KLE1 230410Z 11010KT 06/06 A2981 RMK A01 T00620062  RH  100%=      5-min Rain = 0
KLE1 230411Z 11010KT 06/06 A2981 RMK A01 T00620062  RH  100%=      5-min Rain = 0
KLE1 230412Z 11011KT 06/06 A2981 RMK A01 T00620062  RH  100%=      5-min Rain = 0
KLE1 230413Z 11011KT 06/06 A2981 RMK A01 T00620062  RH  100%=      5-min Rain = 0
KLE1 230414Z 11011KT 06/06 A2981 RMK A01 T00620062  RH  100%=      5-min Rain = 0
KLE1 230415Z 10011KT 06/06 A2981 RMK A01 T00620062  RH  100%=      5-min Rain = 0
KLE1 230416Z 10010KT 06/06 A2981 RMK A01 T00620062  RH  100%=      5-min Rain = 0
KLE1 230417Z 09010KT 06/06 A2981 RMK A01 T00620062  RH  100%=      5-min Rain = 0
KLE1 230418Z 10011KT 06/06 A2981 RMK A01 T00620062  RH  100%=      5-min Rain = 0
KLE1 230419Z 09011KT 06/06 A2981 RMK A01 T00620062  RH  100%=      5-min Rain = 0
KLE1 230420Z 10012KT 06/06 A2981 RMK A01 T00620062  RH  100%=      5-min Rain = 0
KLE1 230421Z 09012KT 06/06 A2981 RMK A01 T00620062  RH  100%=      5-min Rain = 0
KLE1 230422Z 10011KT 06/06 A2981 RMK A01 T00620062  RH  100%=      5-min Rain = 0
KLE1 230423Z 10011KT 06/06 A2981 RMK A01 T00620062  RH  100%=      5-min Rain = 0
KLE1 230424Z 09010KT 06/06 A2981 RMK A01 T00620062  RH  100%=      5-min Rain = 0
KLE1 230425Z 09012KT 06/06 A298 RMK A01 T00620062  RH  100%=      5-min Rain = 0
KLE1 230426Z 09012KT 06/06 A298 RMK A01 T00620062  RH  100%=      5-min Rain = 0
KLE1 230427Z 10011KT 06/06 A298 RMK A01 T00620062  RH  100%=      5-min Rain = 0
KLE1 230428Z 09011KT 06/06 A298 RMK A01 T00620062  RH  100%=      5-min Rain = 0
KLE1 230429Z 09009KT 06/06 A298 RMK A01 T00620062  RH  100%=      5-min Rain = 0
KLE1 230430Z 09011KT 06/06 A298 RMK A01 T00620062  RH  100%=      5-min Rain = 0
KLE1 230431Z 09012KT 06/06 A298 RMK A01 T00620062  RH  100%=      5-min Rain = 0
KLE1 230432Z 09011KT 06/06 A298 RMK A01 T00620062  RH  100%=      5-min Rain = 0
KLE1 230433Z 09011KT 06/06 A298 RMK A01 T00620062  RH  100%=      5-min Rain = 0
KLE1 230434Z 08011KT 06/06 A298 RMK A01 T00620062  RH  100%=      5-min Rain = 0
KLE1 230435Z 08009KT 06/06 A2979 RMK A01 T00620062  RH  100%=      5-min Rain = 0
KLE1 230436Z 08010KT 06/06 A2979 RMK A01 T00620062  RH  100%=      5-min Rain = 0
KLE1 230437Z 09009KT 06/06 A2979 RMK A01 T00620062  RH  100%=      5-min Rain = 0
KLE1 230438Z 09010KT 06/06 A2979 RMK A01 T00620062  RH  100%=      5-min Rain = 0
KLE1 230439Z 09010KT 06/06 A2979 RMK A01 T00620062  RH  100%=      5-min Rain = 0
KLE1 230440Z 09010KT 06/06 A2979 RMK A01 T00620062  RH  100%=      5-min Rain = 0
KLE1 230441Z 09009KT 06/06 A298 RMK A01 T00620062  RH  100%=      5-min Rain = 0
KLE1 230442Z 09009KT 06/06 A298 RMK A01 T00620062  RH  100%=      5-min Rain = 0
KLE1 230443Z 09008KT 06/06 A298 RMK A01 T00620062  RH  100%=      5-min Rain = 0
KLE1 230444Z 09009KT 06/06 A298 RMK A01 T00620062  RH  100%=      5-min Rain = 0
KLE1 230445Z 09010KT 06/06 A2979 RMK A01 T00620062  RH  100%=      5-min Rain = 0
KLE1 230446Z 09010KT 06/06 A2979 RMK A01 T00620062  RH  100%=      5-min Rain = 0
KLE1 230447Z 09010KT 06/06 A2979 RMK A01 T00620062  RH  100%=      5-min Rain = 0
KLE1 230448Z 09010KT 06/06 A2979 RMK A01 T00620062  RH  100%=      5-min Rain = 0
KLE1 230449Z 10011KT 06/06 A298 RMK A01 T00620062  RH  100%=      5-min Rain = 0
KLE1 230450Z 09011KT 06/06 A298 RMK A01 T00620062  RH  100%=      5-min Rain = 0
KLE1 230451Z 09010KT 06/06 A298 RMK A01 T00620062  RH  100%=      5-min Rain = 0
KLE1 230452Z 09009KT 06/06 A2979 RMK A01 T00620062  RH  100%=      5-min Rain = 0
KLE1 230453Z 09011KT 06/06 A2979 RMK A01 T00620062  RH  100%=      5-min Rain = 0
KLE1 230454Z 09010KT 06/06 A2979 RMK A01 T00620062  RH  100%=      5-min Rain = 0
KLE1 230455Z 09011KT 06/06 A2979 RMK A01 T00620062  RH  100%=      5-min Rain = 0
KLE1 230456Z 09012KT 06/06 A2979 RMK A01 T00620062  RH  100%=      5-min Rain = 0
KLE1 230457Z 09012KT 06/06 A2979 RMK A01 T00620062  RH  100%=      5-min Rain = 0
KLE1 230458Z 09010KT 06/06 A2979 RMK A01 T00620062  RH  100%=      5-min Rain = 0
KLE1 230459Z 09010KT 06/06 A2979 RMK A01 T00620062  RH  100%=      5-min Rain = 0
KLE1 230500Z 09010KT 06/06 A2979 RMK A01 T00620062  RH  100%=      5-min Rain = 0
KLE1 230501Z 09010KT 06/06 A2979 RMK A01 T00620062  RH  100%=      5-min Rain = 0
KLE1 230502Z 09009KT 06/06 A2979 RMK A01 T00620062  RH  100%=      5-min Rain = 0
KLE1 230503Z 08010KT 06/06 A2979 RMK A01 T00620062  RH  100%=      5-min Rain = 0
KLE1 230504Z 09011KT 06/06 A2979 RMK A01 T00620062  RH  100%=      5-min Rain = 0
KLE1 230505Z 09009KT 06/06 A2979 RMK A01 T00620062  RH  100%=      5-min Rain = 0
KLE1 230506Z 09008KT 06/06 A2979 RMK A01 T00620062  RH  100%=      5-min Rain = 0
KLE1 230507Z 09010KT 06/06 A2979 RMK A01 T00620062  RH  100%=      5-min Rain = 0
KLE1 230508Z 09009KT 06/06 A2979 RMK A01 T00620062  RH  100%=      5-min Rain = 0
KLE1 230509Z 09009KT 06/06 A2979 RMK A01 T00620062  RH  100%=      5-min Rain = 0
KLE1 230510Z 09009KT 06/06 A2979 RMK A01 T00620062  RH  100%=      5-min Rain = 0
KLE1 230511Z 09010KT 06/06 A2979 RMK A01 T00620062  RH  100%=      5-min Rain = 0
KLE1 230512Z 09010KT 06/06 A2979 RMK A01 T00620062  RH  100%=      5-min Rain = 0
KLE1 230513Z 09009KT 06/06 A2979 RMK A01 T00620062  RH  100%=      5-min Rain = 0
KLE1 230514Z 09010KT 06/06 A2979 RMK A01 T00620062  RH  100%=      5-min Rain = 0
KLE1 230515Z 09009KT 06/06 A2979 RMK A01 T00620062  RH  100%=      5-min Rain = 0
KLE1 230516Z 09010KT 06/06 A2979 RMK A01 T00620062  RH  100%=      5-min Rain = 0
KLE1 230517Z 09010KT 06/06 A2979 RMK A01 T00620062  RH  100%=      5-min Rain = 0
KLE1 230518Z 09011KT 06/06 A2978 RMK A01 T00620062  RH  100%=      5-min Rain = 0
KLE1 230519Z 09011KT 06/06 A2978 RMK A01 T00620062  RH  100%=      5-min Rain = 0
KLE1 230520Z 09011KT 06/06 A2979 RMK A01 T00620062  RH  100%=      5-min Rain = 0
KLE1 230521Z 09011KT 06/06 A2979 RMK A01 T00620062  RH  100%=      5-min Rain = 0
KLE1 230522Z 10011KT 06/06 A2979 RMK A01 T00620062  RH  100%=      5-min Rain = 0
KLE1 230523Z 10010KT 06/06 A2979 RMK A01 T00620062  RH  100%=      5-min Rain = 0
KLE1 230524Z 11008KT 06/06 A2979 RMK A01 T00620062  RH  100%=      5-min Rain = 0
KLE1 230525Z 10008KT 06/06 A2979 RMK A01 T00620062  RH  100%=      5-min Rain = 0
KLE1 230526Z 11010KT 06/06 A298 RMK A01 T00620062  RH  100%=      5-min Rain = 0
KLE1 230527Z 11011KT 06/06 A298 RMK A01 T00620062  RH  100%=      5-min Rain = 0
KLE1 230528Z 11011KT 06/06 A2979 RMK A01 T00620062  RH  100%=      5-min Rain = 0
KLE1 230529Z 11010KT 06/06 A2979 RMK A01 T00620062  RH  100%=      5-min Rain = 0
KLE1 230530Z 11010KT 06/06 A2979 RMK A01 T00620062  RH  100%=      5-min Rain = 0
KLE1 230531Z 11011KT 06/06 A2979 RMK A01 T00620062  RH  100%=      5-min Rain = 0
KLE1 230532Z 11012KT 06/06 A2979 RMK A01 T00620062  RH  100%=      5-min Rain = 0
KLE1 230533Z 11012KT 06/06 A2979 RMK A01 T00620062  RH  100%=      5-min Rain = 0
KLE1 230534Z 11012KT 06/06 A2979 RMK A01 T00620062  RH  100%=      5-min Rain = 0
KLE1 230535Z 11012KT 06/06 A2979 RMK A01 T00620062  RH  100%=      5-min Rain = 0
KLE1 230536Z 11011KT 06/06 A2979 RMK A01 T00620062  RH  100%=      5-min Rain = 0
KLE1 230537Z 10012KT 06/06 A2979 RMK A01 T00620062  RH  100%=      5-min Rain = 0
KLE1 230538Z 10012KT 06/06 A2978 RMK A01 T00620062  RH  100%=      5-min Rain = 0
KLE1 230539Z 10012KT 06/06 A2978 RMK A01 T00620062  RH  100%=      5-min Rain = 0
KLE1 230540Z 10011KT 06/06 A2978 RMK A01 T00620062  RH  100%=      5-min Rain = 0
KLE1 230541Z 10009KT 06/06 A2978 RMK A01 T00620062  RH  100%=      5-min Rain = 0
KLE1 230542Z 10010KT 06/06 A2978 RMK A01 T00620062  RH  100%=      5-min Rain = 0
KLE1 230543Z 10013KT 06/06 A2977 RMK A01 T00620062  RH  100%=      5-min Rain = 0
KLE1 230544Z 10011KT 06/06 A2977 RMK A01 T00620062  RH  100%=      5-min Rain = 0
KLE1 230545Z 09009KT 06/06 A2977 RMK A01 T00620062  RH  100%=      5-min Rain = 0
KLE1 230546Z 09013KT 06/06 A2977 RMK A01 T00620062  RH  100%=      5-min Rain = 0
KLE1 230547Z 09014KT 06/06 A2976 RMK A01 T00620062  RH  100%=      5-min Rain = 0
KLE1 230548Z 09014KT 06/06 A2976 RMK A01 T00620062  RH  100%=      5-min Rain = 0
KLE1 230549Z 10011KT 06/06 A2976 RMK A01 T00620062  RH  100%=      5-min Rain = 0
KLE1 230550Z 08008KT 06/06 A2977 RMK A01 T00620062  RH  100%=      5-min Rain = 0
KLE1 230551Z 08009KT 06/06 A2976 RMK A01 T00620062  RH  100%=      5-min Rain = 0
KLE1 230552Z 09010KT 06/06 A2976 RMK A01 T00620062  RH  100%=      5-min Rain = 0
KLE1 230553Z 08009KT 06/06 A2976 RMK A01 T00620062  RH  100%=      5-min Rain = 0
KLE1 230554Z 08010KT 06/06 A2975 RMK A01 T00620062  RH  100%=      5-min Rain = 0
KLE1 230555Z 08010KT 06/06 A2975 RMK A01 T00620062  RH  100%=      5-min Rain = 0
KLE1 230556Z 08012KT 06/06 A2975 RMK A01 T00620062  RH  100%=      5-min Rain = 0
KLE1 230557Z 08011KT 06/06 A2974 RMK A01 T00620062  RH  100%=      5-min Rain = 0
KLE1 230558Z 09011KT 06/06 A2974 RMK A01 T00620062  RH  100%=      5-min Rain = 0
KLE1 230559Z 09011KT 06/06 A2974 RMK A01 T00620062  RH  100%=      5-min Rain = 0

Page generated in 0.1978 seconds.